GFSSW_sfc_temp_036.txt.gz
Temp
62 62 61 61 61 61 61 61 60 59 60 61 60 59 59 59 59 66 68 78 76 66 67 83 83 83 83 81 82 82 72 69 69 68 68 77 74 77 78 73 75 75 75 77 71
61 62 62 61 61 60 60 60 60 59 60 60 59 59 59 59 64 67 78 68 67 67 84 82 79 80 79 78 79 76 72 71 77 78 74 76 76 74 73 74 72 72 76 73 69
61 61 61 61 61 60 60 59 59 59 60 60 59 59 58 60 64 79 68 68 66 70 87 85 83 79 75 78 77 78 72 77 77 80 80 77 76 80 76 73 77 74 72 67 68
60 60 60 60 61 60 59 58 58 59 60 59 59 59 59 61 64 86 68 67 67 82 84 82 79 74 73 72 79 71 77 77 76 79 79 76 79 74 78 78 81 82 78 72 69
58 58 59 59 60 59 58 58 58 58 59 59 58 59 62 65 73 82 68 68 79 83 82 79 76 76 72 75 76 73 76 75 76 78 79 80 76 75 76 79 80 79 75 75 76
58 58 58 58 60 59 58 57 58 58 58 58 58 58 62 62 87 85 82 81 84 83 82 82 78 80 74 74 74 76 74 72 74 77 76 75 74 77 74 79 76 74 76 79 79
58 58 58 58 58 59 59 58 57 57 58 58 58 63 61 70 87 87 82 84 85 85 81 84 83 78 77 73 77 74 70 72 72 75 73 78 70 69 74 78 74 76 78 79 81
58 58 57 57 57 57 57 56 56 58 57 57 58 60 65 84 89 84 87 83 84 86 85 83 83 78 75 76 74 71 72 64 71 74 72 75 66 70 74 76 76 77 77 77 78
58 58 57 56 56 56 56 56 57 57 57 57 58 60 68 80 80 88 88 82 81 81 82 81 80 75 74 70 67 69 63 65 66 74 73 73 67 69 74 76 74 76 76 76 77
58 57 57 57 56 56 56 56 56 57 59 61 66 60 74 77 82 85 89 86 80 78 75 74 75 72 72 70 59 62 63 67 66 71 74 71 67 69 72 75 73 75 76 76 76
58 58 57 57 56 55 57 65 63 63 62 68 70 69 74 83 84 85 87 84 79 78 70 72 68 65 70 71 71 70 67 66 69 70 71 68 68 68 70 73 73 73 74 74 74
57 57 57 57 56 55 63 65 71 71 65 70 70 70 76 79 74 81 86 78 74 70 71 69 66 69 70 69 68 67 66 64 65 68 69 67 66 66 68 72 73 74 73 73 72
57 57 57 56 55 55 63 68 77 75 65 68 72 72 76 77 75 78 82 78 72 70 69 67 66 69 70 68 66 65 64 63 64 66 69 67 64 63 64 66 67 69 73 73 73
56 56 55 54 56 65 62 73 75 72 61 63 68 74 75 77 71 81 82 78 72 66 68 67 68 67 68 65 66 62 66 66 65 64 60 67 58 64 64 64 64 66 68 71 72
56 56 54 57 66 65 73 78 75 69 44 68 70 82 78 73 76 74 80 78 70 68 67 63 66 66 65 64 66 62 67 66 65 65 62 62 60 65 64 62 64 66 68 69 70
56 55 54 57 64 70 74 74 70 55 43 61 71 69 69 71 71 75 75 78 74 68 70 66 71 70 67 66 68 67 65 65 65 63 52 61 59 63 67 66 65 65 67 68 69
55 55 57 67 66 71 72 69 55 47 63 60 63 68 68 65 66 69 68 67 65 58 59 65 64 69 69 65 67 67 63 54 48 49 48 57 56 63 65 66 68 65 67 68 69
54 54 57 67 72 68 67 62 47 58 60 65 66 68 63 66 64 64 64 63 65 66 63 59 53 64 67 66 64 63 62 52 41 44 51 56 52 63 65 67 69 70 70 69 69
53 56 59 65 65 66 64 51 54 59 66 63 64 61 60 64 65 64 63 65 65 66 61 58 56 66 65 67 67 60 58 61 51 44 46 57 60 65 64 64 67 68 69 69 70
60 57 63 68 68 64 59 52 61 65 66 66 58 63 58 62 61 62 61 63 62 65 67 62 54 62 63 67 65 64 65 53 55 40 41 53 54 61 59 62 65 66 67 69 72
62 59 68 70 69 61 53 58 63 67 68 64 63 60 63 60 63 61 61 62 64 64 68 67 62 57 61 61 61 59 58 57 58 52 46 45 57 65 63 65 65 67 69 70 71
62 55 64 68 57 60 58 63 59 66 66 67 69 66 63 63 60 61 60 63 65 67 63 63 61 53 58 62 64 63 61 61 51 47 49 48 54 65 65 67 68 69 70 72 71
60 60 59 62 52 53 61 62 65 65 65 65 64 67 66 62 57 60 61 60 61 64 63 63 58 50 52 58 61 59 61 61 56 54 48 43 54 65 65 65 68 68 70 68 67
64 52 56 60 65 62 59 60 61 65 65 66 63 65 62 60 60 57 58 59 60 62 49 59 59 56 50 56 60 55 57 59 59 49 52 52 59 62 64 65 67 67 68 66 64
65 59 64 52 56 62 64 63 61 60 65 67 63 66 63 56 57 56 59 58 59 52 59 62 55 56 55 55 55 56 57 57 56 58 50 58 58 65 67 68 69 68 67 64 62
61 60 61 62 62 60 56 60 63 61 64 63 63 64 64 60 63 57 60 60 60 59 60 58 53 52 49 52 52 51 57 58 59 59 58 60 58 70 69 67 66 63 63 62 61
64 64 67 50 59 58 60 61 64 64 59 63 67 63 60 60 62 65 63 64 64 60 56 56 52 49 46 47 48 40 52 58 59 60 59 54 62 66 62 62 64 64 63 62 62

GFSSW_sfc_temp_039.txt.gz
Temp
62 62 62 62 61 61 61 60 60 60 60 61 61 60 59 59 59 72 72 81 81 69 66 89 89 88 89 86 88 89 75 72 68 69 69 76 76 82 84 79 79 80 80 80 79
62 62 62 62 61 60 61 61 59 60 60 60 60 59 59 59 66 75 82 70 69 68 84 85 83 86 82 83 84 79 73 75 79 70 55 75 76 79 78 77 76 75 80 80 77
61 61 61 61 61 60 60 59 59 59 59 59 59 59 59 61 70 84 70 68 68 72 90 90 88 85 80 83 82 80 73 79 81 81 68 77 78 82 79 74 77 76 77 71 74
60 60 60 60 60 60 59 59 59 59 59 60 59 59 59 68 66 87 69 68 68 84 88 86 84 78 77 75 82 75 81 81 83 83 80 75 82 79 77 68 86 86 79 72 75
59 59 59 60 60 60 59 58 59 59 59 59 59 59 64 69 77 86 69 69 81 83 84 83 80 79 74 78 80 76 79 80 81 82 79 80 77 79 77 84 86 85 79 77 79
59 59 59 59 59 59 59 58 58 58 58 59 59 58 66 65 92 92 89 85 89 86 86 86 82 84 79 77 77 80 80 78 79 79 81 78 78 80 80 83 82 80 78 79 80
59 58 58 58 58 58 58 59 58 58 58 58 59 66 67 72 93 94 90 89 91 89 85 89 88 80 81 76 81 79 72 76 75 79 77 80 71 69 80 83 79 78 79 81 83
59 58 58 58 57 57 57 57 57 58 58 58 59 69 67 90 95 92 93 90 91 91 89 89 88 82 79 81 77 73 72 64 75 78 79 79 66 74 80 79 78 80 80 82 83
59 58 58 57 57 57 57 57 57 58 58 59 63 67 70 81 84 93 94 87 87 88 88 86 84 78 78 70 67 71 64 66 70 80 78 76 69 76 81 80 79 80 81 82 82
58 58 58 57 57 57 56 57 57 56 61 70 72 66 76 80 88 90 94 90 84 82 79 78 76 71 73 68 57 62 64 69 68 75 76 72 71 77 80 80 79 79 79 79 80
58 58 58 57 57 56 58 68 66 64 69 71 75 75 79 87 91 88 92 87 84 80 73 75 68 65 70 72 73 71 69 68 73 76 72 72 72 73 77 78 77 78 79 79 80
58 58 58 58 57 56 62 70 76 75 67 75 77 77 82 85 77 85 91 80 75 70 76 70 65 73 77 74 72 71 68 66 72 75 73 73 71 75 77 78 80 79 79 80 81
58 58 58 57 55 58 68 72 84 79 68 75 79 77 80 83 78 81 86 83 74 70 72 63 69 74 73 72 69 69 66 64 67 71 74 73 69 71 75 79 80 81 82 82 80
57 57 56 55 55 71 68 78 81 77 61 67 71 77 81 82 75 88 88 82 74 67 69 64 71 72 72 69 71 63 72 70 68 66 60 73 58 68 72 71 72 75 77 80 79
57 56 55 55 68 69 78 83 81 72 45 71 74 88 84 76 79 79 88 82 71 71 72 67 70 70 69 69 72 64 71 71 70 68 66 67 63 62 73 69 70 74 75 77 79
56 56 55 58 64 74 80 81 74 55 44 65 75 72 72 75 76 82 79 84 81 73 73 62 78 75 72 72 73 73 69 69 70 67 54 64 63 64 68 72 74 74 74 76 76
56 55 57 70 68 77 76 71 55 48 69 64 67 71 71 69 71 73 71 70 67 60 61 69 70 73 75 69 72 71 66 53 50 52 50 64 61 66 73 73 75 72 74 75 75
55 54 57 70 75 73 71 59 48 61 64 72 71 70 65 71 70 70 70 66 73 71 64 59 55 69 74 71 67 68 66 54 43 46 53 64 56 66 73 74 75 76 75 75 74
54 60 61 65 70 69 63 50 55 64 71 67 69 63 64 69 69 68 67 68 71 73 59 58 58 71 71 73 72 66 61 68 57 52 49 59 67 71 71 71 73 73 73 72 73
62 58 63 70 69 63 55 53 63 73 74 71 61 66 61 65 63 65 66 72 70 72 75 68 57 68 68 72 71 68 71 57 58 43 43 57 60 63 65 67 70 71 71 73 75
64 58 71 72 68 57 51 59 67 74 74 68 66 65 66 64 66 65 66 69 73 71 74 73 66 61 66 64 66 64 62 63 62 58 47 46 59 70 68 70 70 72 74 74 74
61 54 69 70 56 58 57 65 66 71 73 71 71 70 67 68 65 66 65 70 75 74 67 71 66 57 62 69 71 70 66 65 52 52 54 51 55 72 72 73 73 73 75 76 76
57 59 62 68 51 54 64 66 71 69 69 69 68 72 73 67 61 66 68 66 69 70 68 69 62 53 56 63 67 63 67 67 65 59 52 46 55 73 73 71 73 74 76 76 76
61 50 51 61 66 61 60 63 63 72 71 72 71 73 68 66 70 64 65 64 66 70 53 62 64 59 52 59 66 59 63 66 63 51 53 56 61 68 70 70 73 73 76 77 75
59 61 61 52 59 56 65 65 63 62 71 72 69 69 67 61 64 63 67 63 64 54 64 66 58 62 64 64 63 63 63 64 61 61 54 60 62 70 73 73 74 76 75 74 72
55 65 67 62 63 58 59 63 64 67 68 65 66 70 71 65 65 62 66 65 63 65 65 67 57 59 54 62 61 58 62 64 64 64 64 65 64 75 75 77 73 73 73 72 71
63 74 70 59 61 60 62 64 66 69 65 72 72 70 67 68 71 72 73 73 71 65 63 62 58 53 48 55 55 43 56 61 64 67 65 57 66 74 70 69 70 72 71 70 71

GFSSW_sfc_temp_042.txt.gz
Temp
62 62 62 62 61 61 60 60 60 60 60 61 60 61 61 59 58 68 66 79 79 71 68 84 88 86 87 83 86 87 70 66 70 70 58 63 59 70 82 79 80 81 77 77 75
62 62 62 61 61 60 60 60 59 59 60 59 60 60 59 59 61 67 79 71 71 69 81 81 81 84 79 80 81 77 68 70 76 68 59 60 58 65 77 77 75 76 77 76 73
62 62 61 61 60 60 60 59 59 59 59 59 59 60 59 60 65 81 69 70 69 72 83 86 88 84 77 80 80 77 69 78 78 75 68 60 61 73 76 68 70 70 72 72 72
61 61 61 61 61 60 59 58 58 59 59 59 59 59 59 63 64 85 72 69 69 84 83 82 83 77 73 73 81 72 79 79 80 77 75 73 76 71 73 67 64 67 74 71 72
60 59 60 60 60 59 58 59 58 59 59 59 59 59 64 67 73 83 69 69 80 82 81 81 78 77 72 76 78 74 77 81 81 81 80 79 71 71 70 77 70 69 73 74 77
59 59 59 59 59 59 58 59 59 59 59 59 59 58 63 62 93 93 90 81 86 83 83 84 81 83 77 76 76 79 79 78 79 79 79 74 70 72 77 83 77 75 74 76 78
59 59 59 59 59 58 58 58 58 59 59 59 59 65 66 69 93 95 91 89 90 87 83 87 87 81 80 74 81 79 72 74 76 77 73 74 67 69 77 80 76 76 77 77 80
59 59 58 58 58 58 58 57 57 59 59 59 58 66 64 89 93 90 93 89 92 92 88 90 88 82 77 79 76 72 72 62 72 75 77 72 59 72 79 77 74 75 76 77 79
59 59 58 58 57 57 57 57 57 59 59 59 61 65 67 84 84 90 92 87 89 89 88 89 84 77 76 67 65 68 58 61 65 78 76 70 63 75 80 78 75 76 76 77 78
59 59 58 58 57 57 57 57 59 57 59 69 71 64 73 77 88 90 95 91 84 83 79 77 76 69 69 65 53 56 59 64 64 73 75 69 68 75 78 77 75 76 77 77 77
59 59 58 58 58 57 57 63 61 59 65 68 72 72 81 88 91 86 92 87 84 79 68 73 65 61 66 68 69 68 66 64 71 76 71 69 70 73 77 77 75 76 76 77 77
58 58 58 58 58 56 60 64 75 74 63 74 76 78 83 85 76 83 92 78 75 68 64 64 60 70 70 71 69 69 63 64 71 74 71 70 69 73 76 76 77 76 75 75 76
58 58 58 57 56 57 63 68 81 79 64 72 77 76 79 83 75 79 86 81 74 65 66 60 64 68 72 69 67 67 60 61 61 70 73 70 66 69 75 77 79 79 79 79 77
58 58 57 55 54 67 66 75 77 77 55 66 72 77 81 81 73 86 89 82 74 67 66 61 66 67 68 68 70 60 67 67 66 63 56 65 52 65 70 72 75 77 77 77 79
57 57 55 55 64 68 77 81 80 70 40 72 73 88 82 74 78 79 89 82 68 69 69 56 57 64 65 67 72 60 67 65 68 65 58 56 52 57 68 66 72 75 77 78 79
56 56 55 57 60 67 75 77 72 51 42 65 74 71 72 74 75 81 79 83 81 70 70 61 70 70 71 73 73 70 66 68 68 63 47 52 51 55 60 62 64 74 75 76 77
56 56 56 69 64 74 73 68 51 45 69 64 66 70 69 68 71 73 70 68 64 58 59 66 67 74 75 68 72 70 64 49 36 38 46 65 60 63 62 71 74 72 74 75 76
55 54 56 66 72 72 69 53 44 59 61 73 71 69 64 70 69 70 68 64 71 69 63 58 53 69 74 69 57 61 63 44 37 35 48 63 55 62 72 76 77 77 76 75 74
54 58 59 63 65 69 58 43 50 61 69 68 69 63 63 68 69 68 66 66 70 71 59 54 54 66 73 75 68 61 59 67 56 50 45 55 63 69 72 71 73 73 73 71 72
53 57 58 66 67 62 51 48 58 69 73 72 61 66 59 64 64 65 64 70 69 75 72 59 46 60 69 73 72 67 71 56 57 41 40 53 58 55 63 67 70 70 70 71 72
54 52 66 68 65 54 48 53 60 72 74 68 66 64 65 64 66 63 65 71 74 73 74 61 51 53 66 63 63 63 60 62 62 57 43 41 52 68 68 70 68 70 72 71 71
53 47 67 67 51 55 52 60 62 68 74 71 71 69 66 67 64 64 64 69 76 74 65 70 64 54 60 71 73 69 64 64 48 49 52 47 50 72 71 72 72 72 74 73 74
50 54 63 64 47 50 57 60 65 66 68 68 67 70 72 67 61 66 68 69 72 72 67 70 61 49 55 64 68 63 66 66 64 59 50 41 50 73 72 72 73 72 74 74 74
52 47 50 56 63 56 54 58 59 70 70 72 70 72 69 65 69 64 66 66 69 70 55 63 63 57 49 57 64 59 62 66 63 47 49 50 57 67 70 69 72 72 73 74 73
52 54 54 44 52 58 60 61 59 61 70 72 68 68 66 60 64 63 68 63 66 56 65 66 56 61 63 65 65 62 62 64 61 61 51 56 59 67 71 71 73 74 74 73 74
50 53 60 60 58 57 55 59 61 66 67 64 65 68 69 63 65 62 67 64 62 64 64 67 56 58 55 62 62 58 61 63 63 63 63 63 61 73 75 73 71 72 72 72 72
56 63 61 54 57 55 57 60 62 68 70 72 70 68 65 69 73 72 74 72 71 64 61 62 56 51 45 55 53 42 54 59 62 65 64 55 64 72 70 71 69 70 71 70 70

GFSSW_sfc_temp_045.txt.gz
Temp
62 62 61 61 61 60 60 60 59 59 60 60 60 60 60 59 58 61 57 65 67 69 69 74 75 74 71 67 70 67 52 54 56 55 57 62 60 61 64 59 71 70 67 65 65
62 62 62 61 60 60 60 59 59 59 59 59 59 59 59 58 56 59 68 70 69 68 73 71 70 73 64 65 66 61 50 56 64 60 58 59 63 61 62 62 62 63 64 64 64
62 61 61 61 60 60 59 59 58 59 59 59 59 59 58 57 57 70 69 70 68 70 74 75 76 72 66 66 63 63 59 67 70 67 62 58 60 68 64 61 58 63 64 61 63
61 61 60 60 60 60 59 58 59 59 59 59 59 59 58 56 57 72 71 68 69 75 73 72 71 64 62 62 67 59 68 70 71 67 63 59 63 65 63 66 65 62 65 65 65
60 60 60 60 60 59 58 58 58 59 59 59 59 59 56 57 62 79 69 68 74 75 72 71 69 67 63 65 66 64 70 72 73 68 67 67 59 64 62 64 68 68 67 65 65
60 59 59 59 59 59 58 58 57 58 58 59 59 58 52 54 78 78 76 74 76 72 73 73 71 74 68 67 63 70 70 68 71 70 71 65 60 67 65 64 66 66 63 64 66
59 59 59 59 59 58 58 57 57 57 58 59 59 58 57 59 77 77 81 77 77 77 73 77 77 69 69 65 71 71 63 67 67 66 63 67 56 59 67 66 63 63 66 67 67
60 59 58 58 58 57 57 57 57 57 58 59 58 55 52 78 75 76 77 80 82 81 79 80 79 72 67 69 67 62 61 54 63 67 67 67 52 61 66 66 63 65 67 69 70
59 59 58 58 57 57 57 57 57 58 58 58 52 52 56 79 75 81 81 79 82 81 79 86 74 66 66 57 52 56 51 56 59 69 64 62 56 63 67 68 65 65 66 67 68
59 59 58 58 57 56 56 56 58 56 58 62 62 53 63 70 79 82 83 83 77 75 72 69 64 58 57 53 45 51 54 51 56 64 65 59 58 62 67 68 66 64 65 66 68
59 59 58 58 57 57 54 55 52 51 55 57 61 63 72 80 82 79 83 79 75 68 58 59 54 50 56 60 64 61 58 56 61 66 60 60 58 61 66 66 64 65 66 65 67
58 58 58 58 57 56 52 53 61 63 53 64 66 69 74 77 71 76 81 70 66 56 60 56 48 62 67 66 62 61 59 58 63 66 62 59 59 63 66 65 67 65 64 65 65
58 58 58 57 56 52 53 57 67 65 52 63 69 67 70 75 69 70 76 71 64 56 57 51 56 65 67 63 61 58 54 54 54 59 61 58 54 59 65 67 69 69 69 70 68
57 57 57 55 51 56 54 65 64 61 44 57 65 70 74 74 66 78 79 73 66 60 58 58 64 63 61 60 63 53 65 62 60 54 45 57 41 53 60 65 68 68 67 67 65
56 56 55 56 51 54 64 66 65 60 31 63 67 80 75 68 70 71 80 73 63 63 60 54 57 59 57 60 65 57 63 62 60 56 53 51 43 51 58 59 64 63 65 68 69
56 56 55 53 52 56 62 63 61 44 33 60 69 66 65 67 69 71 71 73 71 64 61 60 65 62 60 65 65 66 60 60 53 50 40 52 49 46 55 60 63 68 69 66 64
55 55 55 62 54 63 60 56 41 36 62 59 60 65 63 61 64 66 63 60 55 49 49 58 62 65 67 57 63 61 53 39 35 33 34 55 50 49 61 66 63 66 69 62 65
54 54 55 60 61 60 57 48 37 51 54 67 64 63 58 62 62 63 59 54 60 58 51 48 46 58 64 60 56 57 53 38 32 31 35 56 47 52 64 66 68 69 64 64 63
54 53 55 57 58 57 51 41 41 53 62 61 63 56 56 62 63 60 56 56 61 62 50 47 49 61 65 65 62 54 47 58 44 39 32 44 54 59 63 63 63 63 63 60 61
51 51 52 59 58 54 47 43 50 61 65 63 55 58 51 57 57 56 56 62 61 65 61 54 45 55 61 63 64 59 62 45 44 34 32 42 45 45 55 60 61 60 59 60 62
51 47 56 61 58 49 41 46 53 62 65 61 59 57 58 56 58 55 57 63 65 64 62 55 50 48 56 54 54 55 52 54 52 43 33 29 40 55 58 60 59 59 61 61 61
50 42 57 61 44 45 42 50 54 59 64 61 63 60 58 58 58 56 56 61 67 67 59 58 49 41 49 59 64 62 56 52 35 41 40 33 38 59 60 61 61 61 64 63 64
46 49 57 58 39 40 48 51 55 57 59 60 60 62 61 57 54 57 58 61 63 63 58 58 49 37 45 53 59 55 58 58 54 44 40 30 38 61 63 61 63 61 62 64 64
47 41 48 51 53 48 45 48 50 60 59 62 62 63 58 56 59 56 54 61 62 60 53 59 55 47 38 47 53 50 55 57 52 34 39 40 47 56 58 60 61 63 62 60 64
47 47 52 42 44 49 51 51 50 51 60 62 60 60 57 51 55 54 56 57 61 55 58 57 48 51 53 56 56 55 54 55 55 51 41 47 50 56 57 58 59 60 61 63 64
44 46 51 48 51 48 49 49 51 56 58 57 57 60 59 55 56 54 57 56 54 55 55 57 46 48 45 55 54 48 53 53 54 54 52 52 51 59 60 60 60 62 63 62 61
49 52 53 47 48 46 47 52 54 58 60 64 61 58 56 59 61 59 63 61 60 54 51 51 47 39 36 46 46 35 47 51 53 54 52 44 51 56 56 58 57 58 60 60 60

GFSSW_sfc_temp_048.txt.gz
Temp
61 61 61 61 60 60 60 59 59 59 59 59 59 59 60 59 58 58 54 65 63 66 68 70 70 68 65 60 65 64 52 47 51 54 55 59 57 62 67 67 66 61 61 62 62
62 62 62 61 60 60 59 59 58 58 59 59 59 59 59 58 54 54 65 66 65 67 69 67 65 69 60 59 62 58 50 54 62 59 58 58 57 58 59 60 60 57 60 63 62
62 61 61 61 60 60 59 59 58 59 59 59 59 59 58 57 54 67 69 67 67 67 71 70 70 66 58 60 60 58 55 62 64 64 59 56 57 64 61 56 58 55 57 61 61
61 61 60 60 60 60 59 58 58 59 59 59 59 59 58 54 55 70 69 67 68 71 70 67 65 59 57 56 59 56 65 67 66 63 59 57 62 63 61 62 64 61 60 60 61
60 60 60 60 60 59 58 58 58 58 58 59 59 59 54 54 58 73 68 68 71 72 69 67 63 61 57 62 63 60 64 68 68 63 61 65 60 62 58 61 64 64 62 61 62
59 59 59 59 59 59 58 58 57 57 57 58 59 58 52 50 74 74 72 69 72 69 69 68 67 67 64 62 60 65 66 67 64 64 64 62 61 61 60 62 62 64 62 62 61
59 59 59 59 58 58 58 57 57 57 57 58 59 58 52 56 70 70 75 73 72 72 70 73 71 65 66 62 67 65 60 63 63 62 60 62 55 54 63 65 63 61 63 63 66
59 59 58 58 58 57 57 56 56 57 57 58 58 53 49 71 67 71 70 73 76 75 74 76 73 68 63 65 64 59 57 51 60 63 62 58 51 60 63 62 60 60 61 64 66
59 59 58 57 57 56 56 56 56 57 58 58 51 51 51 72 70 75 75 74 75 74 74 80 71 63 63 54 50 53 47 52 56 65 64 60 52 62 60 62 58 59 61 63 64
59 59 58 57 57 56 55 56 57 56 57 60 60 50 59 66 74 77 77 77 73 71 69 66 60 55 53 49 42 47 51 50 53 60 59 59 54 59 61 61 60 59 60 64 63
58 59 58 58 57 56 53 52 52 52 53 55 57 57 65 73 77 74 77 73 70 66 56 58 52 47 54 55 59 59 56 54 57 63 57 57 55 58 61 63 60 59 60 61 64
58 58 58 58 57 56 51 50 56 59 50 60 62 63 69 70 64 70 77 67 62 55 56 55 49 60 61 63 60 57 53 53 59 62 60 54 55 57 62 62 63 63 61 63 63
57 58 58 57 56 52 50 54 63 63 49 57 63 62 65 68 63 66 72 67 59 55 54 51 57 62 60 59 57 54 52 53 54 56 57 54 50 54 61 63 65 66 67 67 66
56 57 57 55 52 53 51 61 60 59 42 52 59 65 69 70 62 73 74 69 60 55 56 56 63 60 58 56 58 51 60 59 56 50 43 52 40 49 57 60 63 65 63 65 65
56 56 55 57 52 53 60 60 59 56 28 59 62 75 69 64 65 67 74 68 59 57 56 53 54 54 54 58 62 53 58 59 57 50 46 47 43 48 54 55 59 63 63 65 65
56 56 54 53 51 53 58 58 58 42 31 55 64 61 60 62 63 68 67 69 67 61 57 56 59 60 58 62 62 62 56 53 50 47 38 48 45 45 51 57 61 64 64 63 61
55 55 55 58 52 56 57 55 42 36 56 55 56 60 58 57 59 62 59 57 53 47 47 54 55 59 63 58 60 57 48 36 33 32 34 50 45 47 57 61 63 62 59 60 62
54 54 54 58 54 55 54 47 36 46 49 61 59 58 54 58 58 59 56 52 55 55 47 45 42 57 62 56 53 54 49 36 33 30 36 49 42 51 59 61 62 64 61 60 59
54 53 53 56 56 55 49 39 37 47 57 56 58 52 51 57 58 56 53 52 57 57 47 43 46 57 60 61 58 52 47 54 40 36 31 42 49 57 59 60 60 57 59 57 56
50 50 52 57 58 54 46 43 46 56 60 58 51 54 48 53 52 52 52 57 57 60 59 52 42 53 59 63 60 56 58 44 42 33 32 39 41 44 52 56 57 55 56 56 57
48 45 55 60 58 47 40 43 51 59 59 55 53 52 54 52 54 51 53 59 61 60 59 53 47 47 53 52 52 51 49 50 47 40 34 29 38 51 54 57 57 57 57 57 57
46 40 53 59 43 43 43 49 52 55 59 56 57 55 54 54 52 52 53 58 61 60 54 55 47 39 49 59 59 54 49 50 35 39 37 31 38 55 57 58 58 58 59 58 60
43 46 53 56 38 37 46 50 52 53 55 55 55 57 59 53 50 54 54 59 58 59 54 55 45 36 43 52 55 50 53 54 48 41 37 30 37 57 57 57 59 58 58 60 60
45 39 45 49 49 45 43 44 45 55 54 56 54 56 54 53 56 53 54 57 57 58 53 57 49 43 36 45 50 46 53 53 48 33 37 38 45 53 57 56 58 58 57 58 60
43 43 46 40 43 45 47 46 45 45 55 57 54 54 51 49 51 50 52 55 56 55 55 54 46 49 50 52 52 51 51 51 48 47 40 45 46 53 54 55 54 57 58 57 58
40 42 46 44 48 45 46 44 46 49 52 53 51 54 54 52 53 51 54 52 52 53 53 54 45 46 44 50 51 46 49 48 50 50 49 48 46 51 53 54 55 56 57 57 57
48 48 48 46 46 43 43 46 48 52 54 58 57 55 52 55 59 58 60 58 57 53 49 49 44 37 36 42 43 34 45 49 49 49 51 42 48 51 51 53 52 52 54 55 55

GFSSW_sfc_temp_051.txt.gz
Temp
62 61 61 61 60 60 60 59 59 59 59 59 59 59 59 59 57 55 53 64 61 65 68 67 66 65 62 57 59 57 48 45 53 53 57 57 56 61 63 62 59 61 61 61 63
62 62 62 61 60 59 59 59 58 58 59 59 59 59 59 58 52 52 64 66 65 66 66 64 62 64 58 55 57 54 47 52 59 57 57 57 56 59 59 58 56 57 60 62 63
62 62 61 61 60 60 59 59 58 58 59 59 59 59 58 56 55 65 68 66 66 66 66 67 66 63 55 55 57 54 53 59 61 62 57 55 54 59 58 54 56 56 57 59 62
61 61 61 61 60 60 59 58 58 59 59 58 59 59 58 53 53 65 68 67 67 67 65 64 62 56 53 53 57 51 61 62 63 60 58 55 58 58 54 59 61 61 60 60 59
60 60 60 60 60 59 58 58 58 58 58 58 59 59 54 52 57 70 68 67 67 68 65 64 61 59 54 58 58 54 62 65 62 61 60 62 58 60 52 58 61 62 61 59 60
59 59 59 59 59 59 58 57 57 57 57 58 59 58 51 50 70 71 70 68 68 64 64 65 65 65 60 59 57 61 60 58 60 59 61 61 57 59 54 59 57 58 58 60 61
59 59 59 59 59 58 58 57 57 57 57 58 58 57 50 56 66 66 68 68 69 68 66 68 68 63 61 61 64 63 57 57 58 59 60 62 53 53 58 60 56 57 58 60 61
59 58 58 58 58 57 57 57 56 57 57 57 58 51 49 67 63 67 66 70 72 71 70 72 70 65 61 63 62 57 54 48 57 59 60 59 48 57 59 59 57 57 59 59 61
59 58 58 57 57 56 56 56 56 57 57 57 50 48 50 68 65 71 71 70 72 71 69 77 67 59 60 52 49 51 44 47 52 61 57 55 52 58 61 60 57 58 59 60 60
58 58 58 57 57 56 55 56 57 56 56 58 58 48 58 63 70 73 70 74 69 67 65 63 57 52 50 48 39 44 49 47 51 60 59 53 54 55 58 61 60 56 58 60 59
57 58 58 57 57 56 54 53 52 50 52 53 55 55 61 68 72 69 72 70 67 64 53 55 50 46 50 52 54 51 51 50 53 60 56 54 54 57 57 58 56 55 57 59 60
57 57 57 57 57 56 52 49 55 56 48 57 59 60 66 67 60 66 73 64 60 54 54 52 47 56 59 57 57 53 52 52 56 60 57 52 53 54 56 57 59 59 57 59 61
56 57 57 57 56 53 50 53 62 60 47 55 59 59 61 65 59 60 68 64 56 52 53 48 55 60 59 55 55 51 48 50 52 54 52 50 48 51 56 58 61 62 62 62 61
56 56 56 56 52 53 51 59 58 58 41 50 55 59 64 65 59 68 70 66 56 54 53 52 58 57 53 53 56 47 56 56 53 48 43 50 39 48 52 56 59 61 60 61 62
56 56 55 56 51 50 57 58 57 55 29 56 57 70 65 62 62 63 70 64 56 54 54 52 53 53 52 55 57 51 56 53 53 48 44 45 42 46 51 52 56 60 61 62 63
55 56 55 53 51 51 55 57 55 39 30 52 60 57 57 59 60 62 65 66 64 56 54 53 56 55 55 59 59 59 53 51 48 45 36 44 43 42 48 54 59 61 63 62 60
55 55 54 58 52 54 56 53 40 30 53 51 53 56 54 53 56 57 57 54 51 45 45 51 52 56 58 53 56 54 46 35 32 32 34 47 42 45 54 57 59 59 62 60 60
54 54 54 58 55 54 56 47 34 44 45 56 55 54 51 54 54 55 53 50 52 51 44 43 41 53 58 54 50 48 47 35 32 29 34 46 39 48 57 58 59 59 58 58 59
54 50 52 56 56 53 49 39 37 45 54 52 54 48 48 53 54 53 50 50 54 54 47 42 44 53 56 57 57 50 44 50 38 35 30 38 46 54 57 56 57 53 57 56 54
48 47 50 57 57 52 43 43 45 53 56 54 48 50 44 48 50 50 48 54 54 57 56 50 42 51 55 56 57 54 56 41 39 33 30 37 38 42 51 54 56 51 53 54 53
45 42 51 57 56 46 38 42 49 57 57 51 49 48 50 48 50 47 50 55 57 56 56 51 48 45 51 50 50 48 46 46 45 37 32 29 37 49 52 55 56 56 55 54 53
42 36 51 56 43 43 40 47 51 54 55 53 52 51 50 50 49 49 50 55 59 56 52 52 45 38 47 54 55 51 49 47 34 37 34 30 37 53 54 56 55 57 58 55 55
40 43 53 54 38 39 44 47 50 52 51 51 51 52 53 49 46 50 52 57 57 56 52 52 43 35 42 48 50 47 50 50 45 38 35 29 37 54 53 54 57 55 56 56 56
42 35 44 48 50 45 42 43 44 54 50 52 51 52 50 49 52 50 51 56 56 56 52 54 46 43 37 44 48 45 49 49 46 32 36 36 43 51 54 52 55 56 55 54 55
42 38 44 38 41 45 47 44 43 45 50 53 48 49 48 44 48 48 50 52 54 51 53 52 44 45 47 49 50 50 48 47 46 45 39 43 43 50 51 54 53 53 55 54 55
39 38 42 40 45 45 45 43 43 47 48 47 48 51 52 47 50 47 51 50 51 51 51 51 42 43 39 46 48 45 49 49 48 47 46 45 45 49 49 49 50 52 53 53 53
45 46 42 43 42 40 43 44 45 49 50 53 52 51 49 51 55 56 57 55 55 51 47 47 42 38 36 41 41 34 43 48 48 48 48 41 48 49 47 49 47 48 51 51 52

GFSSW_sfc_temp_054.txt.gz
Temp
62 61 61 61 60 60 60 59 59 59 59 59 59 59 59 59 58 53 52 63 58 65 65 65 64 63 60 55 56 53 45 41 45 53 54 56 56 60 62 59 59 61 60 61 63
62 62 62 61 60 60 59 59 58 58 59 59 59 59 59 58 52 50 64 66 65 66 65 63 60 62 56 53 54 51 43 50 57 59 57 57 56 57 56 54 56 58 61 62 62
62 62 62 61 60 60 59 59 58 59 59 59 59 59 58 56 54 63 67 65 65 65 64 65 64 61 54 52 53 50 49 56 59 61 58 55 55 58 56 52 56 56 59 61 60
61 61 61 61 61 60 59 58 58 59 59 58 59 59 58 51 51 63 67 66 66 64 64 62 60 55 51 50 55 50 57 60 61 59 55 54 58 58 54 57 60 61 62 61 59
59 60 60 60 60 59 58 58 58 58 58 58 59 59 54 51 56 67 67 66 65 65 63 62 59 57 52 54 54 52 58 62 62 58 57 61 56 56 53 57 61 62 61 60 61
59 59 59 59 59 59 58 58 57 57 57 58 58 58 50 48 66 68 68 64 66 63 62 63 62 63 57 56 53 58 58 56 57 58 59 59 56 56 56 61 59 60 58 58 59
59 59 59 59 59 59 58 57 57 57 57 58 58 56 49 55 64 64 66 65 66 66 63 65 64 60 59 57 61 59 54 56 57 56 56 59 49 49 57 59 57 58 57 57 61
59 58 58 58 58 58 57 57 56 57 57 58 57 51 49 65 61 64 63 66 68 68 67 67 66 61 57 60 59 53 51 47 53 57 56 55 45 48 56 55 55 56 57 57 60
58 58 57 57 56 56 56 56 56 57 57 57 50 49 50 66 62 69 69 67 69 68 65 74 64 57 57 49 46 49 43 46 51 57 54 53 46 52 56 56 54 54 58 57 59
57 57 57 57 57 56 55 56 56 55 56 58 57 48 57 60 67 69 66 70 67 64 63 60 55 50 48 46 39 41 44 44 48 54 54 49 51 52 56 57 55 54 55 56 57
57 57 57 57 57 56 54 51 50 48 52 54 54 54 58 65 67 65 68 68 64 62 52 54 49 44 50 51 52 49 47 46 52 57 54 52 51 51 54 56 55 54 54 56 57
56 56 57 57 57 56 53 48 55 54 47 56 57 57 62 64 58 63 69 62 58 52 52 50 46 54 56 54 53 50 48 47 53 56 52 48 50 52 54 56 58 56 56 57 57
56 56 56 56 55 54 52 53 60 57 44 53 56 56 59 62 57 58 65 61 54 51 50 47 52 57 56 52 52 49 47 47 49 53 51 47 47 49 54 56 58 59 59 60 59
56 56 55 55 52 54 50 58 58 55 39 48 52 57 60 61 56 65 67 63 54 53 51 50 55 54 52 51 53 45 53 51 50 47 41 47 38 44 49 53 56 58 57 59 59
56 55 55 55 53 48 55 57 57 54 28 53 53 66 61 58 60 60 67 62 53 53 52 49 50 51 49 52 55 51 54 51 49 45 42 42 39 44 47 49 53 56 59 59 60
56 55 55 53 52 51 57 55 54 40 30 50 56 54 53 56 57 59 61 63 60 53 50 51 54 53 53 55 56 56 52 49 46 43 36 42 40 41 45 50 53 58 60 60 59
56 55 54 57 52 53 57 51 39 32 51 48 50 53 50 51 53 55 53 52 48 43 42 48 49 54 56 50 54 51 44 35 32 31 33 44 40 44 51 54 56 56 60 61 61
55 54 53 56 57 54 55 44 33 41 44 53 52 50 48 51 51 53 50 47 49 49 42 41 39 51 56 52 49 46 46 34 31 29 34 43 38 47 54 56 56 57 57 59 58
54 47 49 55 56 56 48 38 35 43 51 50 51 47 46 50 50 50 47 47 51 52 45 40 43 51 54 54 53 47 42 48 37 33 29 37 44 52 52 52 55 54 51 52 53
48 46 46 57 56 51 43 40 43 51 54 52 45 48 43 46 47 47 46 51 52 54 54 49 41 48 52 53 53 50 53 41 37 32 30 35 37 40 50 52 54 52 51 52 52
47 41 47 56 54 46 37 41 48 55 54 49 46 45 47 46 47 44 47 52 55 53 53 48 46 42 49 48 48 46 44 43 43 36 31 28 36 47 51 52 53 52 53 52 52
44 34 49 54 42 44 41 44 50 53 54 51 50 49 48 48 46 46 47 53 56 54 50 50 44 36 45 50 52 49 47 45 34 36 33 30 34 51 52 52 52 55 55 52 53
39 40 52 52 36 38 46 47 48 50 49 49 48 50 51 46 43 47 48 56 54 54 50 50 41 35 40 45 47 46 47 47 42 37 34 28 36 52 51 52 53 53 54 55 53
39 32 43 45 48 43 43 43 42 51 50 49 48 50 48 47 49 46 48 54 54 55 51 54 43 41 37 42 45 41 45 46 44 32 36 35 41 49 51 51 53 54 54 52 54
40 36 42 36 39 42 45 45 41 42 49 50 45 47 46 43 45 44 49 50 52 50 50 51 43 42 44 46 47 47 46 44 43 43 38 43 41 48 49 48 50 50 52 52 53
36 35 43 38 43 42 43 43 42 44 46 45 44 48 48 44 47 45 50 47 48 48 48 48 42 41 38 44 44 42 44 44 45 44 43 43 43 49 46 46 48 48 50 50 49
43 41 43 42 42 38 40 43 43 47 49 50 50 48 45 49 54 53 53 53 53 48 45 45 40 36 36 39 41 34 43 45 45 45 46 39 47 47 44 47 44 46 47 47 46

GFSSW_sfc_temp_057.txt.gz
Temp
62 62 62 61 61 60 60 60 59 59 59 60 59 59 60 59 58 56 57 69 65 65 65 71 72 71 70 68 68 66 61 55 57 58 63 63 61 63 66 62 62 64 64 64 63
62 62 62 62 61 60 60 59 59 59 59 59 59 59 59 58 54 54 67 66 65 66 71 70 68 68 67 66 66 65 58 59 64 66 64 62 62 62 63 60 59 59 62 62 62
62 62 62 62 61 60 60 59 58 59 59 59 59 59 58 57 58 69 66 66 66 67 73 73 71 70 66 66 64 61 60 63 66 68 68 64 61 64 62 59 62 59 58 60 60
60 61 61 61 61 60 59 58 58 59 59 59 59 59 58 56 57 72 67 66 66 68 72 69 69 65 63 62 64 60 64 65 68 67 62 62 64 61 62 62 64 65 62 61 60
59 59 60 61 61 60 59 58 58 58 58 59 59 59 58 57 61 71 66 66 67 69 70 68 66 65 62 63 63 61 65 66 67 65 63 64 61 60 58 61 65 64 62 61 60
58 58 59 59 60 59 59 58 58 57 58 58 59 58 56 52 72 70 69 68 70 70 69 69 68 69 66 63 63 65 64 64 63 62 63 62 60 61 58 62 61 61 61 62 62
58 58 58 59 59 59 59 58 57 57 57 58 58 57 52 57 70 68 67 71 71 71 69 70 72 69 68 63 67 66 61 62 62 63 62 65 59 60 61 61 59 59 60 61 62
58 57 57 57 57 57 57 57 57 57 57 58 58 55 51 68 67 66 68 70 71 72 73 74 73 69 66 67 64 61 60 56 61 64 61 63 56 58 60 60 60 59 60 61 63
57 57 57 56 57 56 56 56 56 57 57 57 53 53 52 69 66 71 71 71 70 70 71 75 72 64 64 59 57 57 53 54 58 63 62 62 58 59 58 59 59 59 61 62 62
57 57 56 56 56 56 55 56 57 56 57 58 57 51 59 64 69 71 71 73 72 68 67 66 63 60 58 58 49 52 52 54 55 62 61 59 60 57 57 58 59 61 60 62 62
57 57 56 56 56 56 56 57 54 51 52 53 55 55 61 68 70 69 70 70 70 67 60 60 59 54 58 57 58 56 54 54 58 63 60 59 60 58 57 58 58 59 60 61 64
58 56 56 56 56 55 55 53 55 55 47 56 56 57 62 66 60 66 71 66 63 58 59 58 53 59 59 58 56 57 55 55 59 61 59 57 59 60 56 57 60 61 61 63 65
57 57 56 55 55 54 55 55 61 60 46 53 57 56 59 63 58 61 68 64 60 55 56 53 58 59 59 58 55 56 55 54 55 58 59 58 56 56 57 60 62 63 65 66 66
56 56 55 55 52 54 52 59 59 59 41 48 53 57 60 62 57 67 69 67 60 57 55 56 59 58 56 56 58 52 59 57 55 55 50 57 48 54 57 57 59 62 63 64 64
56 56 55 54 52 50 56 58 57 55 31 54 53 67 61 59 62 61 68 66 57 56 57 55 55 55 54 56 59 56 59 57 56 53 52 50 50 56 55 57 59 62 64 65 67
55 55 55 52 53 55 57 59 56 41 30 50 55 53 53 57 61 62 64 67 64 57 57 57 61 60 60 60 59 59 56 54 52 50 44 49 50 53 57 59 61 64 66 65 67
55 55 54 56 50 56 59 55 40 33 51 49 50 54 52 52 56 57 55 55 54 48 48 55 56 61 61 58 59 57 53 44 41 41 41 49 47 54 60 62 64 65 66 66 67
54 54 54 55 58 56 56 44 32 42 43 54 53 52 49 53 54 55 53 52 55 55 49 48 46 56 60 59 56 54 54 44 37 38 43 48 45 57 62 64 63 63 63 64 65
54 50 49 52 54 55 48 36 38 43 50 50 53 47 47 52 53 53 52 54 55 56 51 45 48 57 59 60 61 53 50 54 42 39 39 46 52 61 61 62 63 63 63 64 64
48 46 47 53 55 50 42 40 44 51 53 53 46 50 44 48 49 51 48 54 54 57 60 53 47 53 57 60 58 57 57 47 46 37 35 43 45 51 58 60 61 63 63 64 62
46 41 50 54 53 45 37 42 47 54 55 50 47 47 49 47 50 47 49 55 58 55 59 54 53 50 55 54 54 52 51 48 50 45 40 37 46 56 59 61 61 62 63 63 63
43 34 47 53 39 41 39 46 49 52 55 52 52 50 49 49 47 48 49 55 58 57 54 56 50 43 51 56 58 56 54 52 44 42 40 39 44 59 59 59 58 61 63 64 64
39 40 48 50 33 37 45 46 50 49 51 50 49 52 53 50 46 49 50 56 54 56 54 54 47 42 46 52 54 53 53 51 48 44 41 38 46 59 59 61 61 62 64 63 63
39 33 40 43 47 42 41 42 43 52 50 52 50 51 51 50 51 49 50 55 54 57 51 56 48 47 44 49 52 47 49 51 51 42 44 44 50 58 61 59 63 61 61 62 62
39 36 42 34 37 40 44 44 43 43 50 51 48 48 48 46 47 47 52 53 54 51 54 56 48 48 50 51 51 52 51 49 49 51 46 51 47 56 59 60 58 56 58 57 57
36 36 40 41 42 39 42 41 43 46 47 46 46 48 50 46 48 45 50 52 51 52 51 53 47 46 46 48 50 48 51 50 50 50 50 50 49 58 58 57 55 53 55 54 53
43 42 44 42 40 37 39 43 44 48 49 51 50 48 46 50 53 55 55 55 55 54 49 48 44 42 41 45 46 39 47 49 50 52 53 46 55 55 54 53 52 52 52 50 49

GFSSW_sfc_temp_060.txt.gz
Temp
62 62 62 62 61 61 61 60 59 59 60 60 60 60 60 59 59 70 72 76 75 66 64 81 82 82 82 79 80 80 69 66 66 66 70 74 69 69 73 73 72 73 74 75 64
62 62 63 62 61 61 60 60 59 59 59 59 59 59 59 58 67 71 75 67 66 66 82 80 78 79 79 77 78 74 69 67 74 75 73 75 72 69 70 71 70 66 64 64 63
61 61 62 62 61 61 60 59 59 59 59 59 59 59 59 62 68 78 67 66 66 69 83 83 81 79 75 77 76 74 69 73 75 79 80 77 72 76 71 70 73 68 60 61 63
60 60 60 61 61 61 60 59 59 59 59 59 59 59 59 68 64 81 68 67 66 81 82 80 78 74 73 71 76 68 76 76 76 77 76 73 75 71 73 71 74 74 65 62 61
59 59 59 60 61 60 59 59 59 59 59 59 59 59 67 67 72 80 68 68 77 79 80 78 75 75 70 73 73 70 74 76 78 75 74 72 71 71 70 72 74 70 63 62 62
58 58 58 59 59 59 59 59 58 58 58 59 59 58 64 60 81 79 78 77 81 81 80 79 77 78 73 72 71 74 75 75 73 72 71 70 70 71 71 72 69 64 63 64 63
58 57 57 58 58 58 59 58 58 57 58 59 59 63 60 65 81 81 76 80 83 83 78 81 81 76 76 71 75 74 69 73 72 73 71 74 68 70 73 70 63 63 64 66 65
58 57 57 57 57 57 57 57 57 57 58 58 58 63 59 78 81 76 79 79 82 83 81 82 81 77 74 76 74 70 69 65 72 72 70 71 63 71 73 71 67 64 67 65 66
58 57 56 56 56 56 56 56 57 58 58 58 60 61 61 73 71 80 80 78 80 79 80 81 79 74 73 68 66 68 62 63 65 73 71 71 66 71 71 71 72 70 70 69 69
58 58 57 56 56 55 55 56 59 57 61 62 64 57 68 71 76 77 80 82 77 76 74 73 74 70 70 67 57 60 61 65 64 70 70 69 70 72 70 71 72 73 72 69 71
58 58 57 56 56 55 58 64 62 59 59 62 63 65 69 76 77 76 79 77 79 75 67 71 67 63 66 68 66 66 63 62 67 70 67 67 69 73 72 68 71 73 73 72 72
58 57 57 56 56 56 57 59 62 61 54 64 64 66 70 72 65 73 80 73 70 65 69 65 62 70 69 67 64 65 64 63 66 69 66 68 68 73 72 69 72 73 70 73 74
57 57 57 56 55 55 57 63 70 66 55 59 65 64 67 69 65 71 76 75 69 66 66 63 66 68 66 65 62 64 62 62 62 66 70 68 66 67 68 69 69 70 74 76 76
56 56 56 55 54 61 59 68 69 66 50 55 57 63 67 69 62 78 79 75 69 65 67 66 72 65 65 63 66 60 68 66 63 63 57 67 54 64 69 68 69 72 73 75 77
56 56 55 54 55 55 64 68 66 61 38 60 57 72 68 66 68 70 80 73 66 66 66 63 64 63 62 65 68 63 67 65 65 63 60 60 58 65 67 66 70 72 74 75 77
55 55 55 57 57 63 67 66 63 47 37 54 59 57 57 62 65 70 70 75 77 68 67 68 70 68 68 68 68 68 64 63 63 61 51 59 58 62 67 69 72 76 77 78 78
54 55 54 63 56 66 64 59 45 40 57 54 53 56 59 57 61 65 63 61 61 55 56 64 65 69 69 64 66 66 62 50 46 48 48 59 56 63 70 73 73 73 77 79 80
54 54 54 61 64 63 58 46 39 51 52 59 57 56 54 61 61 63 62 59 67 66 61 56 52 64 69 66 63 63 63 52 41 44 50 57 53 64 72 75 75 75 75 75 77
53 51 50 55 62 56 48 37 46 51 57 55 57 51 51 59 61 61 61 61 65 68 58 56 57 66 68 68 69 61 57 64 52 49 48 57 61 70 72 72 73 74 75 75 76
50 47 48 56 60 48 42 43 52 59 59 57 52 56 48 51 55 59 58 65 64 69 72 63 54 63 64 68 66 64 68 54 57 42 41 52 54 60 65 68 71 73 75 76 76
47 40 55 56 53 42 36 46 54 62 60 54 55 52 55 54 56 57 57 62 68 65 71 67 62 55 61 60 62 60 59 59 60 56 46 45 54 69 68 70 70 72 74 75 76
43 34 55 55 36 39 39 51 54 57 61 57 56 54 54 56 55 57 58 63 70 69 61 67 62 54 58 64 66 67 63 62 52 49 52 50 52 73 73 72 72 72 73 75 75
39 39 52 54 31 34 46 49 55 55 57 55 53 56 58 55 52 58 60 67 67 68 64 65 58 50 53 58 62 61 63 64 61 57 52 46 54 72 71 71 73 73 75 74 74
39 33 39 42 52 42 42 46 47 57 57 58 55 57 54 53 58 55 57 59 63 68 56 63 62 56 49 56 63 57 60 63 60 51 54 55 58 67 70 72 75 74 73 74 73
40 40 42 32 39 46 47 48 46 47 55 57 54 54 53 49 52 53 57 58 60 55 64 65 56 59 62 64 64 62 62 62 59 60 54 59 61 66 70 73 74 70 69 69 68
37 46 47 46 46 45 45 44 47 50 52 51 52 54 54 50 53 50 55 58 58 59 61 63 56 59 55 62 61 58 62 63 63 63 61 62 61 72 74 72 68 66 66 65 64
43 57 52 46 44 41 45 44 49 53 55 57 55 52 50 54 58 60 60 60 60 58 58 58 57 53 49 56 55 44 56 61 62 63 63 58 66 73 69 67 66 65 64 63 61

GFSSW_sfc_temp_066.txt.gz
Temp
61 62 62 62 62 62 62 61 61 61 61 61 61 60 61 60 60 74 73 79 80 68 66 84 83 85 86 82 85 85 68 64 68 68 68 74 72 81 81 78 69 65 66 63 61
61 61 61 61 61 61 61 61 60 60 60 60 60 60 60 59 65 72 76 69 70 69 80 82 80 83 79 80 82 76 67 69 77 78 75 79 78 79 75 63 61 61 65 63 63
61 61 61 61 60 60 60 60 60 60 60 60 60 60 59 62 69 79 68 69 69 71 82 86 86 83 76 80 80 77 68 76 78 81 81 78 79 82 77 58 59 56 64 63 63
60 60 60 60 60 60 59 59 59 60 60 60 60 60 60 68 63 82 70 68 68 80 81 82 81 75 73 72 81 72 78 78 80 82 80 77 81 77 74 65 68 66 66 63 62
60 59 59 60 60 59 59 58 59 59 60 60 60 60 65 69 72 81 70 69 79 80 80 79 76 76 71 75 79 75 77 79 81 81 80 81 76 77 65 71 73 69 65 62 62
59 60 59 59 59 58 58 58 58 58 59 59 60 58 65 58 86 92 87 82 83 81 80 81 79 82 76 75 74 78 78 78 80 79 80 76 75 69 61 54 69 68 65 66 65
59 59 59 59 58 58 57 57 57 58 58 59 60 64 62 63 85 90 88 85 86 85 79 84 85 79 79 73 81 78 71 75 76 78 77 79 70 60 62 61 67 66 66 67 67
60 59 59 59 58 57 57 56 56 57 59 59 60 64 58 82 88 85 86 84 88 88 85 87 87 80 76 80 76 71 71 63 74 77 77 76 61 62 64 64 67 69 69 68 69
58 59 58 58 57 56 56 56 56 57 59 60 61 62 60 79 76 83 87 81 84 85 85 87 83 75 75 68 64 68 59 64 68 77 75 72 59 59 63 66 63 71 71 71 70
57 58 58 58 57 56 55 56 60 59 62 68 67 60 68 70 83 84 86 84 79 78 76 74 73 67 68 64 54 61 62 65 65 71 73 70 56 57 61 66 65 73 71 71 71
57 57 58 58 57 57 57 64 61 56 60 62 65 64 74 82 86 81 85 79 79 74 64 70 63 59 65 69 70 69 66 64 68 74 70 68 69 64 64 71 71 73 72 71 73
57 57 57 57 57 57 59 56 69 69 57 68 67 68 74 78 70 77 85 71 69 63 68 65 58 69 73 73 70 67 64 64 70 73 70 69 68 68 70 75 77 75 73 73 74
56 56 56 57 57 56 57 59 74 74 57 63 70 69 71 74 68 72 79 73 68 64 65 60 67 74 71 70 65 66 63 62 62 69 72 68 64 68 75 77 78 78 79 75 75
56 56 55 57 52 61 58 70 71 71 49 58 67 71 74 74 65 78 82 74 70 63 65 66 73 71 69 66 68 61 71 68 67 63 55 66 48 62 69 72 74 76 76 76 77
55 55 55 55 60 58 67 70 75 65 35 68 71 80 76 67 71 70 80 75 64 66 67 63 68 67 64 67 71 65 71 67 67 63 61 61 54 62 69 68 71 74 75 75 75
55 55 55 54 57 61 67 61 63 45 36 61 67 63 64 66 67 76 72 77 75 68 70 68 77 73 71 73 73 74 68 66 66 61 49 60 57 56 63 66 73 75 75 76 76
55 55 55 60 51 66 63 51 41 37 62 59 60 64 62 61 63 67 64 63 60 54 55 64 66 74 75 67 72 69 62 49 45 45 46 63 58 61 65 71 75 77 76 76 78
54 54 56 60 63 61 54 41 35 51 53 68 67 64 57 63 61 62 64 59 65 64 58 53 51 67 73 68 64 63 61 50 38 34 43 54 53 62 72 78 79 80 80 81 79
54 53 54 59 61 57 44 33 38 51 62 59 63 57 56 62 63 61 60 61 64 66 56 54 55 71 72 72 70 63 57 66 48 48 42 47 61 71 75 75 77 77 79 78 79
49 49 50 61 61 50 38 35 46 57 60 64 54 60 54 58 58 59 59 65 63 68 69 62 54 68 70 73 72 67 70 55 56 37 40 53 57 58 66 70 74 75 75 77 80
46 40 54 61 56 42 32 38 48 60 62 58 57 57 59 59 60 58 58 63 65 66 68 66 60 61 69 63 62 63 60 61 62 57 45 42 50 62 66 72 72 74 76 77 77
44 35 54 58 37 39 35 44 51 55 61 58 60 61 60 61 59 58 57 62 70 66 61 66 61 53 60 70 72 69 63 63 51 50 53 47 51 67 68 75 75 75 77 78 79
39 39 52 54 32 33 43 46 50 52 57 58 55 62 64 59 55 59 61 67 67 64 59 64 57 50 52 62 67 63 66 66 64 61 52 42 51 74 75 75 77 75 77 78 78
39 32 41 43 49 43 41 43 44 53 55 59 58 61 59 55 62 56 59 62 63 65 59 61 62 57 48 54 62 58 63 65 62 49 52 54 57 66 70 71 75 75 77 78 77
39 37 44 34 37 44 46 48 45 45 54 58 55 55 55 52 55 56 61 60 62 60 62 64 55 60 62 64 64 63 62 63 60 61 53 58 60 66 72 73 75 76 76 77 77
33 45 49 48 42 42 43 44 47 49 52 50 51 56 53 53 57 55 60 58 55 61 59 62 55 58 55 63 63 60 64 64 64 64 63 64 63 74 76 78 75 76 75 75 75
42 54 49 43 42 37 41 45 48 53 55 58 57 56 51 52 53 61 59 61 60 58 57 57 53 52 46 59 59 48 59 64 65 67 66 58 66 73 72 74 74 75 75 74 72

GFSSW_sfc_temp_069.txt.gz
Temp
61 61 61 61 60 60 61 61 60 60 60 61 61 61 61 60 59 65 62 69 69 67 65 74 72 72 71 66 70 66 51 50 55 60 60 66 65 71 73 65 63 64 63 62 61
61 61 61 61 60 60 60 60 60 60 60 60 60 60 60 59 59 62 70 68 67 67 72 72 70 71 63 65 66 58 49 56 67 68 67 68 67 67 64 60 60 58 61 61 61
61 61 61 60 60 59 59 59 59 59 60 60 60 60 59 59 59 71 68 68 68 68 73 74 75 73 64 66 65 63 57 67 69 71 68 64 68 61 62 54 50 60 58 59 61
61 61 60 60 60 59 58 58 58 59 59 60 60 60 59 58 55 68 68 68 68 72 72 72 71 64 61 60 70 57 69 69 69 72 68 66 64 53 51 52 61 62 61 62 59
59 60 61 60 60 59 58 57 58 58 59 59 60 60 57 56 61 75 69 68 72 73 70 70 67 65 61 65 67 65 67 71 72 71 69 72 60 58 54 59 62 65 63 61 60
59 59 59 61 60 58 58 57 57 57 58 59 60 59 55 47 73 79 74 72 74 71 71 71 69 72 68 67 63 70 69 68 70 70 71 69 61 62 55 63 64 64 62 60 61
58 59 60 60 60 59 58 57 56 57 57 59 59 60 55 53 71 73 76 74 75 74 70 74 75 70 68 64 71 70 62 65 67 68 67 72 56 55 59 63 62 63 64 61 63
58 58 58 60 59 59 58 56 56 57 57 58 59 58 50 71 71 70 71 71 78 78 77 77 77 72 66 69 67 61 60 51 64 68 70 67 48 56 59 61 59 61 61 62 61
57 57 57 57 59 59 58 56 56 57 58 58 54 52 50 73 66 72 74 72 76 77 76 83 74 66 65 57 52 54 48 53 59 70 67 62 47 58 63 63 61 61 62 62 58
57 57 57 57 57 57 57 56 58 58 59 62 62 50 59 63 74 77 76 76 72 71 69 67 61 56 54 49 42 48 54 56 54 61 65 57 53 56 60 63 60 56 58 61 57
57 57 56 56 57 57 53 51 50 48 53 53 54 56 65 73 77 75 76 73 71 66 56 61 51 50 53 57 60 59 58 55 60 68 63 59 54 56 60 61 55 56 57 60 60
56 56 56 56 56 57 50 45 52 56 47 58 60 61 67 70 63 70 77 65 61 55 61 56 50 60 64 64 62 62 57 54 63 68 61 57 55 58 58 58 60 58 59 61 62
56 56 56 56 56 50 47 50 60 58 45 55 62 61 62 67 59 62 70 67 60 56 58 52 59 65 63 61 60 60 56 54 56 62 61 56 53 54 63 63 63 65 66 66 61
56 55 55 55 50 50 47 58 61 58 39 48 58 61 66 67 58 70 72 68 61 56 59 57 65 63 61 60 63 54 64 63 60 54 45 56 41 54 61 63 66 67 65 65 63
56 55 55 55 48 49 58 61 60 57 23 57 61 75 70 61 63 64 72 66 58 59 59 56 60 59 58 62 65 59 67 62 60 52 49 50 43 50 58 59 62 63 65 66 66
55 55 54 50 48 51 57 56 51 36 26 52 62 60 59 60 61 65 63 68 65 60 61 60 68 66 64 67 67 68 62 59 56 51 39 50 47 45 52 60 64 65 67 67 68
55 55 53 55 47 53 57 49 35 27 54 52 54 59 57 55 57 59 56 54 50 47 48 57 59 67 70 61 65 62 52 39 34 33 34 54 49 50 61 65 66 66 67 68 69
54 53 53 54 55 55 50 39 29 42 44 59 58 58 52 56 55 56 54 50 56 55 50 47 44 61 67 63 57 56 53 39 33 30 36 51 44 52 64 68 70 70 70 69 70
53 50 49 52 53 51 43 31 32 41 53 49 53 50 50 56 55 54 52 52 57 59 48 47 49 65 67 68 65 56 49 57 43 41 36 43 52 62 64 64 67 68 67 67 68
48 46 46 55 53 46 37 33 39 49 54 54 44 50 47 51 51 51 50 57 56 62 64 54 48 62 65 67 65 60 63 47 46 31 31 43 46 48 54 60 65 64 63 65 67
46 40 49 55 50 40 30 35 41 51 53 49 47 45 49 46 53 50 52 58 60 61 65 60 53 52 60 57 57 56 54 55 53 45 34 32 40 54 57 64 64 62 65 65 66
44 34 50 54 36 37 33 39 45 47 52 49 51 49 47 48 47 52 52 56 64 61 56 59 52 44 50 62 68 63 56 54 40 43 44 36 40 62 60 63 64 66 67 66 67
40 39 49 50 31 32 40 40 43 44 46 47 47 51 54 49 43 52 55 61 62 59 53 56 47 38 45 56 63 58 58 60 56 50 42 32 40 63 64 64 66 63 65 67 68
38 32 39 42 43 37 36 37 38 46 46 49 48 50 49 47 51 49 50 58 58 60 56 57 52 47 40 46 56 51 57 59 54 38 42 41 49 59 62 62 63 65 67 65 68
37 35 39 33 34 38 40 41 37 38 46 49 46 45 45 43 44 46 49 51 58 54 56 54 45 50 51 57 58 57 56 57 55 54 44 49 52 58 60 62 64 65 67 67 67
32 36 41 38 41 37 39 37 39 41 45 41 41 45 49 45 46 42 45 49 46 58 53 54 45 50 48 56 58 54 57 58 58 56 54 57 54 64 65 66 66 67 68 68 66
40 45 44 40 39 34 35 38 40 45 47 51 47 46 45 47 51 50 49 51 50 50 50 50 48 45 40 51 52 40 52 53 58 59 57 49 56 63 62 65 64 64 66 64 64

GFSSW_sfc_temp_072.txt.gz
Temp
61 61 61 61 60 59 60 59 59 60 60 60 60 60 61 60 59 63 59 67 65 66 66 70 67 67 64 60 62 61 47 45 49 52 57 66 64 66 64 60 60 61 59 59 60
61 61 61 60 59 59 59 59 58 59 59 60 60 60 60 59 58 57 68 68 66 66 70 68 66 65 59 58 60 55 45 51 60 62 62 64 60 59 55 51 54 58 60 59 59
62 62 61 61 60 59 59 58 58 58 59 59 59 60 59 59 55 64 68 67 67 67 69 70 70 67 59 58 59 55 53 63 65 67 63 62 56 56 53 48 54 56 57 59 60
60 60 61 61 60 59 58 57 58 58 58 59 59 60 59 56 52 66 68 68 68 69 69 67 65 59 57 56 59 54 63 65 68 70 65 60 55 56 49 57 60 62 60 59 58
58 59 60 60 61 60 58 57 57 58 58 58 59 60 56 52 56 72 68 68 67 70 68 66 63 60 56 59 61 58 63 66 68 67 65 66 58 56 53 59 63 62 60 58 57
58 58 59 60 60 60 59 58 57 57 57 58 59 59 56 45 70 72 71 67 69 67 67 67 65 67 62 61 57 63 63 63 65 65 65 62 56 57 57 60 62 60 58 57 58
57 57 58 59 60 60 59 58 57 57 57 58 59 58 54 51 66 66 69 67 69 69 66 69 70 63 62 60 66 64 59 61 63 63 63 63 52 53 57 60 59 58 58 58 59
57 57 56 57 57 59 58 57 57 57 58 58 58 57 48 67 65 65 64 64 70 71 72 72 71 66 62 65 63 58 54 48 59 62 67 62 52 55 57 59 57 57 58 58 59
57 57 56 56 56 56 57 57 57 58 58 58 52 51 47 67 63 67 67 65 70 71 71 78 69 62 61 52 48 48 43 48 54 67 63 60 51 55 57 59 57 57 59 58 58
57 56 56 56 55 55 55 56 58 56 56 60 59 49 55 60 69 72 68 69 66 66 65 64 60 54 50 47 39 43 46 45 49 59 56 52 52 54 55 57 57 56 58 58 56
57 56 56 56 55 55 51 49 47 47 49 49 52 51 59 67 73 69 71 67 65 61 54 57 50 48 51 52 55 53 51 49 56 64 61 57 51 54 53 57 54 55 55 56 55
56 56 56 56 55 55 49 45 48 49 39 54 55 57 62 65 57 64 70 61 58 52 56 52 49 58 59 57 55 54 51 50 58 64 59 55 53 53 55 57 58 58 56 56 56
56 56 56 55 55 51 47 49 58 54 38 49 57 56 58 62 54 57 64 61 57 52 52 50 55 62 58 55 54 54 51 52 53 58 56 52 48 50 58 58 59 60 62 58 57
55 55 55 55 49 49 46 57 59 55 33 43 52 57 61 61 54 67 68 63 57 53 54 52 61 58 56 54 57 49 60 59 56 51 43 51 39 48 54 57 59 59 58 59 59
55 55 55 55 45 44 53 56 58 49 22 51 55 67 63 56 58 58 68 61 53 54 54 50 54 54 53 56 62 54 61 60 58 50 45 46 41 47 54 54 56 59 60 61 61
54 55 55 51 45 47 53 53 51 36 22 45 58 54 52 56 57 60 58 62 62 56 55 55 63 60 59 63 63 65 59 56 51 47 37 45 43 42 47 55 58 62 62 63 61
54 54 53 54 42 49 51 47 35 26 50 46 51 55 52 50 53 54 52 51 48 43 45 53 54 61 63 56 61 60 50 38 35 33 33 50 44 48 57 60 62 62 63 63 62
54 53 53 53 51 48 49 39 27 39 40 53 51 52 48 51 50 52 49 46 53 49 46 42 39 55 62 58 55 54 51 38 33 30 35 46 41 49 61 66 65 66 65 65 63
53 50 49 52 51 48 40 28 32 40 48 46 48 44 45 52 50 49 46 46 52 54 44 43 44 59 64 65 63 54 46 55 41 39 33 40 48 56 59 59 62 62 64 64 64
48 46 46 54 52 44 35 32 37 47 50 47 38 47 42 44 44 45 45 53 51 57 57 50 42 57 60 63 63 57 60 44 44 32 29 39 41 44 53 57 59 59 58 63 65
47 40 48 53 49 38 29 33 40 47 47 44 42 42 43 43 46 44 46 53 56 55 59 55 47 47 56 54 52 52 51 50 50 43 33 30 38 51 54 59 60 60 61 61 64
45 35 49 52 35 35 31 38 44 44 48 44 46 45 43 44 43 44 45 51 57 59 51 55 48 41 48 58 61 57 55 52 39 39 41 35 40 56 57 62 61 60 63 62 63
40 38 48 48 30 31 38 39 42 42 43 43 43 46 49 45 38 47 48 55 59 56 53 53 44 37 42 53 57 53 56 56 51 46 40 34 39 59 59 58 61 59 61 63 64
36 31 38 40 41 38 34 35 36 45 42 44 43 46 42 41 46 44 46 53 53 57 53 57 46 46 39 44 51 47 54 58 52 38 41 41 49 56 58 59 61 60 62 61 63
35 33 38 32 34 38 39 38 35 35 44 45 39 40 40 36 40 42 45 47 53 54 53 53 42 47 49 52 53 51 52 54 52 49 44 49 50 56 58 59 62 63 63 62 63
31 34 38 39 39 36 37 34 36 39 42 38 37 42 43 38 41 39 44 43 45 49 49 51 42 45 42 51 52 48 52 55 54 53 52 52 50 60 63 60 61 64 64 62 63
43 42 43 39 36 33 34 37 37 42 43 45 43 40 39 42 47 49 48 49 48 44 44 47 44 40 35 48 47 38 46 50 52 54 54 47 54 62 62 61 60 61 62 62 61

GFSSW_sfc_temp_075.txt.gz
Temp
61 61 61 60 59 59 59 59 58 58 59 59 59 59 60 60 59 59 57 66 62 65 67 66 65 64 62 57 59 56 46 40 46 47 54 60 59 60 60 58 57 59 58 58 60
61 62 62 61 59 59 59 58 58 58 58 59 59 59 59 59 56 54 65 67 66 66 67 66 63 64 56 54 56 53 44 48 56 57 60 62 57 56 53 50 54 56 59 59 59
60 61 61 61 60 59 59 58 58 58 58 58 58 59 58 58 53 61 68 67 66 67 67 67 67 65 54 55 55 52 50 55 62 62 59 57 54 56 53 49 55 54 56 56 58
59 59 60 61 60 60 59 58 58 58 58 58 59 59 59 54 52 64 68 67 67 66 66 64 62 57 53 53 56 50 59 59 62 64 57 56 56 55 52 57 58 58 58 59 58
57 58 59 60 61 60 59 58 58 58 58 58 58 59 56 49 52 67 68 67 67 67 65 64 60 59 55 56 56 54 59 62 64 63 60 59 56 58 54 58 61 59 58 59 58
57 57 57 58 59 60 59 58 58 57 58 58 58 58 55 42 66 68 67 64 65 64 64 64 63 63 58 57 56 59 60 60 61 62 61 59 54 53 58 58 58 57 58 59 59
57 57 57 57 57 57 57 58 57 57 58 58 59 57 52 49 62 63 63 62 63 65 63 65 66 61 59 56 61 60 56 56 58 59 59 59 49 51 57 57 55 55 56 58 56
57 57 56 56 56 56 56 56 56 57 58 58 58 55 46 65 61 61 60 60 64 65 65 67 66 62 59 61 59 53 51 45 54 58 61 60 48 56 56 54 53 54 55 56 56
57 56 56 56 55 55 55 55 56 57 58 58 51 49 44 65 60 65 64 62 66 67 65 73 65 59 57 50 45 45 40 45 51 59 58 54 51 55 54 55 54 55 54 55 55
57 56 56 56 55 55 54 55 57 56 55 58 56 47 53 56 65 67 63 65 62 65 62 61 56 50 48 46 38 40 43 41 46 55 56 51 52 52 52 53 54 53 54 54 55
57 56 56 56 55 55 52 50 46 45 47 46 49 49 56 63 69 65 67 63 62 59 52 55 48 46 50 51 51 50 47 45 50 58 54 53 50 53 50 52 51 52 53 53 55
56 56 56 55 55 55 49 45 49 48 39 50 50 51 57 60 52 60 66 57 54 49 53 50 45 56 56 54 52 50 46 46 52 58 54 52 53 52 51 53 55 54 52 53 54
56 56 56 55 55 50 46 49 59 56 39 45 51 52 55 57 50 53 60 57 53 48 50 48 52 59 56 52 50 49 46 47 49 53 53 51 48 49 54 54 56 57 56 55 54
55 55 55 54 48 47 45 56 56 55 31 40 46 52 58 59 50 62 64 59 54 50 50 49 58 55 52 50 52 45 55 54 51 46 40 48 37 46 50 52 54 57 55 54 54
55 55 54 55 44 44 50 53 54 47 22 49 51 64 59 53 55 55 63 58 51 51 51 47 51 51 50 52 55 50 57 54 52 46 43 43 39 45 49 50 53 58 58 56 56
54 54 54 51 45 46 51 51 49 32 23 43 53 50 49 53 53 56 55 59 59 53 51 51 56 55 54 59 58 60 54 52 48 45 35 43 42 40 46 52 57 59 60 59 56
54 54 53 54 42 47 47 45 32 25 46 43 47 50 48 47 49 51 48 47 44 41 42 48 51 54 59 51 55 54 46 35 33 32 32 47 41 44 53 56 59 59 59 60 59
54 53 53 53 50 47 45 36 25 36 38 48 47 48 43 48 47 48 46 42 48 47 41 40 36 52 57 54 49 49 47 35 32 30 34 43 38 47 58 60 61 62 63 63 59
53 50 49 51 51 49 38 28 31 37 45 43 45 40 41 45 45 44 43 42 49 49 42 38 40 54 58 59 59 49 43 54 38 36 32 38 46 54 58 58 58 58 59 57 59
47 46 47 53 51 45 34 30 35 44 44 45 36 42 37 41 43 41 40 48 48 54 52 46 39 53 56 59 59 55 56 43 40 31 29 36 38 42 52 55 57 55 56 59 61
46 40 48 52 49 39 28 32 38 45 46 40 39 38 40 39 42 38 41 48 51 50 55 50 44 44 54 50 48 49 47 47 46 39 32 29 36 49 52 56 58 56 57 59 60
44 35 48 50 34 34 31 36 43 42 46 43 42 40 39 41 40 39 40 45 53 50 47 51 44 39 45 54 57 55 50 49 37 36 37 33 37 55 55 56 56 58 58 59 62
40 38 47 48 30 31 38 37 40 40 41 41 40 41 44 40 36 41 45 49 54 50 47 49 41 34 40 48 53 49 51 52 48 43 36 31 38 58 57 56 58 57 58 58 61
34 31 38 41 38 37 34 33 33 42 40 42 41 42 39 37 42 39 43 49 51 52 51 50 43 43 37 41 49 45 49 53 50 37 38 40 47 55 58 55 58 58 59 58 58
35 33 37 31 34 38 39 38 33 33 41 42 38 37 35 32 38 38 45 47 50 51 48 50 41 43 48 52 51 49 49 50 46 49 44 47 48 54 57 58 59 59 59 59 59
31 34 39 35 39 36 37 34 35 37 40 36 36 39 38 34 35 36 42 45 44 48 44 48 41 44 43 49 52 48 50 48 47 49 49 49 48 56 61 58 56 60 61 61 60
42 41 41 39 36 33 34 37 36 40 41 43 41 38 36 39 43 45 46 47 47 45 43 42 39 38 35 45 45 35 43 50 48 49 48 43 50 58 56 59 58 59 59 61 61

GFSSW_sfc_temp_081.txt.gz
Temp
61 61 61 61 60 60 59 59 58 58 59 59 59 59 59 59 58 58 57 68 65 65 67 68 70 70 70 67 67 65 59 54 55 55 62 66 66 67 65 65 64 66 64 63 63
60 60 60 61 59 59 59 59 58 58 59 59 59 59 58 58 56 54 64 65 65 66 69 68 65 67 66 65 65 64 57 57 62 63 63 65 65 68 65 63 64 62 62 64 63
59 59 59 59 59 59 59 59 58 59 59 59 59 59 58 58 55 64 66 66 66 67 72 72 69 68 63 63 63 60 59 61 64 66 67 66 64 67 63 64 67 63 63 61 61
58 58 58 59 59 58 58 57 58 59 59 59 59 59 58 56 54 67 67 67 66 69 71 69 67 63 61 60 63 58 62 64 67 66 65 63 67 64 62 70 66 68 65 62 60
57 57 58 58 58 58 57 57 57 57 58 58 59 59 54 52 56 67 66 67 67 68 68 66 64 63 59 61 62 58 62 65 66 65 65 65 65 65 62 68 64 62 62 61 62
57 57 57 57 57 57 57 56 56 56 57 57 58 58 51 45 69 67 65 66 67 67 67 67 66 67 63 62 61 64 63 65 65 65 65 63 63 60 71 66 61 59 59 63 63
57 57 57 57 57 57 56 56 56 56 56 57 58 56 47 49 66 66 63 64 67 66 64 67 69 66 65 60 65 63 59 62 64 66 65 65 59 58 69 62 60 59 61 62 64
57 56 56 56 56 56 56 55 55 56 57 57 58 53 44 62 64 61 62 61 64 66 65 67 67 66 64 65 62 58 57 53 61 61 64 65 58 66 64 61 59 59 61 62 63
56 56 56 55 55 55 55 55 55 57 57 57 52 49 44 63 57 65 64 61 62 62 64 71 66 62 62 57 53 52 50 50 56 63 63 61 59 65 61 60 59 56 59 61 61
56 56 56 55 55 54 54 55 56 56 56 56 55 44 52 56 63 66 64 64 62 59 59 60 60 56 55 52 45 48 48 50 52 59 59 58 59 65 63 60 60 60 58 57 58
56 56 56 55 55 54 51 50 48 47 48 46 47 47 52 59 64 63 63 62 63 58 52 55 51 47 53 55 55 54 52 51 56 59 57 57 58 63 66 58 58 59 59 59 58
56 55 55 55 55 54 50 46 48 48 38 48 47 49 55 57 49 58 65 56 54 51 54 50 47 54 56 55 54 54 51 51 55 59 57 58 57 64 64 64 62 61 60 61 62
55 55 55 54 54 50 47 48 54 52 39 45 49 48 50 54 47 51 60 58 53 49 50 49 52 57 55 52 50 51 50 51 51 54 59 55 54 59 64 61 60 61 64 64 63
54 54 54 54 49 48 45 53 54 51 34 40 44 49 54 55 47 58 62 59 53 50 51 51 58 54 52 51 53 47 55 53 52 49 45 56 44 55 62 63 61 61 60 62 63
54 54 54 54 47 45 51 54 54 49 26 47 47 61 57 50 53 53 62 57 50 50 51 48 50 51 50 51 54 51 57 54 53 50 48 51 47 52 56 59 65 68 62 63 64
53 53 53 51 48 51 52 52 49 34 25 43 50 48 48 50 52 55 54 59 58 51 52 51 57 56 56 57 56 58 54 53 50 48 39 48 48 50 57 60 64 67 67 63 63
53 53 51 52 45 51 50 46 32 26 44 40 43 47 47 47 48 50 47 46 44 40 41 48 51 56 58 52 55 55 49 40 37 37 38 50 46 53 59 62 65 68 70 65 63
52 52 50 51 51 50 47 38 24 36 36 46 46 46 43 47 47 47 45 42 49 47 43 40 39 52 56 55 50 50 50 41 34 36 42 47 43 53 63 66 66 66 68 66 62
51 48 46 50 51 49 40 26 32 37 42 41 44 40 40 45 45 45 43 43 47 49 42 40 41 54 56 58 58 48 44 54 42 40 39 46 51 59 64 62 65 66 65 65 63
45 44 45 50 50 45 34 30 35 42 43 43 37 41 36 39 40 41 42 48 47 51 52 47 40 52 55 58 59 55 56 42 45 35 34 42 44 51 57 61 63 62 65 65 64
43 38 47 51 48 39 29 33 38 44 44 39 37 36 37 37 40 39 41 47 48 48 52 49 45 45 51 49 48 50 48 49 50 45 39 37 44 57 60 63 60 61 64 64 63
41 32 47 49 35 34 32 37 43 41 45 42 42 39 37 39 38 40 39 44 51 50 42 46 42 39 45 54 56 56 51 51 43 40 43 44 47 61 61 63 60 63 64 65 65
37 37 47 47 29 31 35 35 41 39 40 39 39 41 42 38 35 40 42 50 50 50 44 45 40 35 40 49 54 50 52 54 52 47 44 39 46 61 60 62 64 63 66 67 65
37 30 37 41 39 37 34 33 33 43 40 41 40 42 39 37 41 37 39 46 48 49 48 48 39 35 34 39 46 45 50 52 51 42 45 45 50 57 61 62 65 63 65 67 65
36 31 38 30 33 35 38 38 34 33 41 42 38 37 37 32 34 35 41 43 48 50 48 46 37 40 40 43 44 45 48 52 49 50 45 49 51 57 60 63 65 63 65 66 66
32 34 36 36 39 35 37 36 36 36 37 35 35 38 39 33 36 35 40 41 39 45 43 46 34 36 36 43 44 41 48 50 51 51 50 50 50 61 64 65 63 64 62 66 66
41 41 40 37 35 33 33 37 37 41 41 43 40 38 33 37 43 44 45 44 43 39 38 38 35 34 33 39 37 36 45 49 52 53 53 47 55 62 60 59 62 63 61 63 65

GFSSW_sfc_temp_084.txt.gz
Temp
61 60 60 60 60 59 60 59 59 59 59 60 59 59 59 59 59 73 69 74 73 66 67 79 78 80 82 80 80 80 69 67 70 68 72 78 73 79 78 76 78 79 80 78 74
60 60 60 60 59 59 59 59 59 59 59 59 59 59 59 58 65 71 74 67 66 66 78 77 75 78 76 77 77 73 69 70 76 77 72 75 75 78 76 79 78 77 79 75 74
59 59 59 59 59 59 58 58 57 58 59 59 59 59 58 61 66 75 67 66 65 69 81 82 81 77 73 77 75 74 68 76 75 77 78 77 76 80 76 74 79 78 81 77 74
58 58 58 59 59 59 58 57 57 58 58 58 59 59 59 66 61 77 67 68 67 78 79 78 76 71 70 69 77 68 73 76 77 78 76 75 80 76 78 77 84 81 80 78 74
57 58 58 58 58 58 57 57 57 57 57 58 58 59 62 63 68 77 68 70 77 77 76 75 73 73 68 73 74 68 73 76 77 77 76 77 73 75 77 82 84 79 75 75 74
58 57 57 57 57 57 57 57 56 56 57 57 58 58 59 54 79 77 74 75 78 77 76 76 73 77 72 72 70 74 73 75 76 76 75 71 74 76 78 83 79 75 77 77 74
57 57 57 57 57 57 56 56 56 56 57 57 58 61 55 60 76 77 73 74 75 77 73 76 77 72 73 68 74 72 66 72 73 75 73 76 69 71 79 78 76 76 75 76 75
57 57 56 56 56 56 55 55 55 56 57 57 58 60 51 73 75 71 76 72 75 75 73 75 76 73 71 74 70 66 68 62 73 72 73 72 64 77 81 76 76 77 75 74 75
57 56 56 55 55 55 55 55 55 57 57 57 57 56 55 69 65 74 75 68 70 71 72 75 73 69 70 62 61 64 58 63 66 74 73 70 68 77 77 75 74 76 75 74 75
56 56 56 55 55 55 54 55 58 57 61 63 62 50 60 63 69 71 73 71 66 62 63 66 67 63 63 62 51 57 59 63 62 70 69 68 68 75 80 75 75 76 74 75 74
56 56 55 55 55 55 57 63 61 56 57 56 58 56 62 68 70 70 71 68 68 63 55 62 58 54 60 61 64 65 61 62 69 69 64 66 67 73 78 77 75 75 74 74 73
55 55 55 55 55 55 59 55 53 52 43 57 57 58 64 66 55 65 71 63 61 57 60 58 53 64 64 64 60 61 59 60 67 68 64 66 67 73 76 78 78 78 76 75 74
55 55 55 54 54 57 57 55 62 60 42 52 57 56 57 60 54 57 65 64 60 57 55 52 59 64 62 58 56 58 57 59 60 66 68 64 62 68 75 77 77 77 79 79 77
54 54 54 53 52 59 57 60 63 56 39 51 50 56 58 59 52 64 67 64 60 55 57 54 59 60 59 56 59 53 64 62 59 58 53 63 53 67 71 73 75 77 76 77 77
54 53 53 53 55 55 58 60 58 54 32 52 53 66 61 55 57 56 64 62 55 55 55 54 54 54 53 57 61 56 64 62 60 58 57 58 54 64 70 67 72 77 78 78 78
53 53 53 56 57 57 61 60 54 37 31 49 55 53 52 53 55 58 56 63 62 54 57 55 62 59 57 62 63 63 60 59 59 57 46 55 56 59 67 68 73 77 80 79 78
53 53 53 56 50 61 60 52 38 33 51 46 48 52 52 51 52 53 49 47 48 42 43 52 54 61 62 58 62 60 56 47 44 44 44 59 55 59 69 73 74 76 79 80 79
52 51 54 56 59 55 53 42 28 42 44 51 50 52 48 51 52 52 50 47 53 51 50 44 43 53 60 57 55 55 56 49 39 43 49 58 50 60 73 77 78 79 79 79 78
52 54 50 57 57 52 40 31 39 44 48 46 50 46 47 49 51 51 50 51 53 54 47 47 47 61 62 63 63 57 51 62 51 52 44 54 60 67 72 73 75 77 78 78 78
49 47 50 59 58 46 35 32 43 48 48 48 42 46 42 45 47 49 48 51 50 56 57 52 44 57 59 62 64 61 64 49 51 38 38 51 54 57 63 69 73 74 75 77 79
45 38 54 59 53 39 30 33 43 51 48 44 43 42 44 42 46 46 46 50 54 54 57 53 50 51 56 53 52 54 52 55 56 52 44 43 54 68 67 71 71 73 76 75 76
42 32 56 54 35 34 32 41 43 47 51 47 46 44 43 44 44 44 44 49 56 55 48 51 48 43 50 60 62 60 56 56 47 47 51 49 52 70 70 72 72 74 75 75 75
37 38 53 49 31 33 36 37 46 45 46 46 44 46 48 44 40 45 47 53 55 53 49 52 42 41 45 53 59 54 57 58 57 55 48 44 52 71 73 73 74 74 77 78 75
37 31 42 42 41 39 40 35 35 45 46 48 45 48 45 42 47 43 45 51 53 53 49 52 47 39 37 42 48 45 51 56 55 46 48 51 55 64 68 69 74 74 77 79 77
37 33 44 33 34 34 41 41 37 35 45 48 43 44 43 39 42 42 46 48 52 52 53 51 42 46 48 50 51 50 50 52 52 55 50 54 56 63 68 71 73 75 75 75 77
33 34 43 43 45 38 35 37 39 44 42 41 41 45 46 41 43 40 44 45 44 49 46 48 38 42 40 48 50 47 51 53 54 55 58 59 57 69 72 74 73 74 74 73 74
40 43 39 40 41 34 36 40 41 45 46 49 47 45 42 46 49 48 48 48 47 45 44 42 40 35 35 47 45 41 49 51 56 59 58 52 61 69 67 69 71 73 74 73 74

GFSSW_sfc_temp_087.txt.gz
Temp
60 60 60 60 60 59 59 59 58 59 59 60 60 59 59 59 59 76 76 78 77 67 67 85 84 85 87 83 87 86 71 69 73 76 77 85 79 85 87 82 86 86 86 86 83
60 60 60 60 59 59 59 58 58 58 59 59 59 59 59 58 66 74 76 68 67 67 78 82 78 83 80 81 83 77 71 72 83 83 78 81 81 83 83 82 83 84 88 88 83
59 59 59 59 59 59 58 58 58 58 58 58 58 59 58 61 69 81 68 68 67 69 82 87 85 82 76 82 80 78 70 79 82 83 84 82 82 86 81 78 83 82 86 88 84
58 58 59 59 59 59 58 57 58 58 58 58 58 59 58 66 62 83 69 67 67 80 82 82 82 76 73 74 81 73 78 80 81 85 82 79 84 81 83 82 88 88 88 86 86
58 58 58 58 58 58 57 57 57 57 57 58 58 58 63 66 71 84 70 70 80 80 79 79 76 76 72 77 79 75 77 80 83 82 81 82 78 79 81 86 88 89 88 84 84
58 58 58 58 58 58 57 57 56 56 57 58 58 57 63 56 85 86 83 82 83 82 80 82 79 82 77 76 75 78 78 78 80 81 81 77 78 80 82 87 85 86 86 87 84
57 57 57 57 57 57 57 56 56 56 56 57 58 62 59 62 84 85 81 80 85 84 79 83 84 77 77 72 79 76 70 74 76 79 78 80 72 74 84 86 84 84 86 85 85
57 57 56 56 56 56 56 55 55 56 57 57 58 63 56 79 83 79 81 79 82 83 81 84 82 76 74 78 73 68 69 62 74 79 81 79 65 79 87 85 82 83 85 84 83
57 56 56 56 55 55 55 55 55 56 58 58 60 61 59 72 71 78 80 74 79 79 80 80 78 71 72 65 62 65 57 62 68 81 77 74 69 81 85 81 80 82 84 83 82
57 56 56 56 55 55 54 55 59 57 60 68 69 55 65 67 74 76 79 78 73 73 70 68 70 65 66 64 53 56 58 63 65 76 78 72 72 79 84 81 81 82 84 83 82
56 56 56 55 55 55 57 67 63 60 62 61 64 62 68 74 78 74 77 72 73 68 60 66 60 57 63 65 66 65 64 65 71 78 71 70 71 76 81 82 82 81 82 83 82
55 55 55 55 55 54 59 60 60 57 48 63 63 64 70 73 62 70 79 66 65 60 66 64 55 66 69 67 64 62 61 62 68 74 71 69 69 75 79 81 82 83 83 83 83
55 54 54 54 54 57 63 61 68 63 51 59 65 64 66 68 60 64 73 68 64 60 63 59 64 69 64 61 56 59 59 60 61 70 73 68 65 70 77 81 82 84 85 86 84
54 54 54 53 52 65 61 66 68 62 46 57 58 61 63 64 57 71 74 68 63 59 61 63 68 64 62 60 60 53 65 63 62 62 56 70 55 67 75 78 80 81 82 83 85
54 54 53 53 54 57 60 67 65 56 36 59 59 72 67 60 63 62 70 66 57 59 60 58 60 60 56 60 63 58 66 62 63 62 60 61 58 64 73 72 76 80 82 83 85
54 53 53 58 59 63 66 65 60 39 34 54 61 57 57 60 60 62 59 66 67 58 61 60 69 64 63 64 63 64 61 62 62 60 48 58 59 61 68 73 76 81 83 84 85
53 53 53 58 54 63 62 55 40 36 56 53 54 58 58 56 57 58 53 52 52 44 45 54 58 65 65 57 62 59 55 46 45 45 45 63 60 63 74 77 78 79 81 84 85
53 52 56 61 63 62 55 42 30 48 51 57 55 57 53 57 56 56 54 53 58 57 52 47 45 58 65 60 57 56 54 45 39 44 51 65 55 63 76 80 82 83 83 83 83
52 57 57 60 63 57 43 30 40 47 55 51 54 50 52 55 54 55 54 56 58 60 50 51 51 66 64 64 62 58 51 60 52 55 48 56 63 72 76 76 78 79 81 82 84
54 53 55 63 61 50 35 33 46 54 53 52 46 52 49 51 51 52 53 56 54 59 62 55 47 60 62 65 63 58 66 50 53 40 39 52 56 60 67 71 76 77 78 81 85
50 41 58 64 56 40 31 36 46 53 54 48 49 47 50 48 50 50 51 54 57 56 61 58 52 53 59 56 55 55 54 57 56 52 44 44 55 72 71 74 74 76 78 80 82
45 34 61 58 36 38 32 43 43 49 56 52 50 49 48 49 47 47 48 53 59 58 51 56 51 46 52 63 66 63 59 58 47 47 54 52 53 75 74 75 76 77 78 79 80
39 44 58 53 33 36 45 40 43 44 48 49 49 51 52 48 43 49 51 57 56 56 50 54 47 42 47 55 60 56 59 60 59 57 50 46 53 75 76 75 76 77 79 80 80
39 33 47 45 47 39 40 42 41 47 45 52 50 52 49 46 50 45 48 54 56 56 51 52 49 45 39 43 53 50 56 58 56 49 50 52 57 66 69 72 74 76 79 81 81
38 35 48 33 39 43 44 42 40 41 45 50 45 47 47 42 45 44 49 51 55 54 54 52 42 48 51 53 53 53 53 55 53 54 49 54 58 65 69 72 74 78 79 78 79
33 34 47 46 48 43 42 41 41 40 41 42 43 48 49 44 46 40 43 46 45 53 51 51 42 47 45 52 52 49 54 56 57 56 57 58 58 71 74 76 75 76 77 77 78
43 49 43 42 43 41 42 43 44 47 49 50 49 48 46 48 52 53 53 52 51 46 46 45 42 39 36 49 48 42 52 55 56 58 57 53 61 70 70 71 72 73 75 76 77

GFSSW_sfc_temp_090.txt.gz
Temp
60 60 60 60 59 59 59 59 58 58 59 59 59 59 59 59 58 70 70 79 77 69 68 81 81 82 84 81 84 85 68 64 68 71 76 86 80 86 88 82 84 86 85 85 84
60 60 60 59 59 59 59 59 58 58 58 58 58 59 58 58 61 67 77 69 69 68 79 77 77 80 76 77 79 75 67 68 77 80 79 82 82 82 81 79 80 83 87 88 83
59 59 59 59 59 59 58 58 57 58 58 58 58 58 58 59 63 75 68 68 68 68 80 82 83 80 73 77 77 75 68 75 78 82 83 81 80 85 79 75 81 80 84 87 82
59 59 59 59 59 59 58 57 57 58 58 58 58 58 58 61 58 76 69 68 67 75 77 77 78 73 71 70 78 70 77 78 79 82 81 78 83 79 81 81 87 87 86 86 85
58 58 58 58 58 58 57 57 57 57 57 57 58 58 59 63 65 84 69 70 78 77 77 75 74 73 68 73 75 72 76 79 81 81 80 81 77 77 78 84 87 88 86 84 83
57 57 57 57 57 57 57 57 56 56 57 57 58 58 57 50 80 88 85 83 82 81 78 79 77 79 74 73 72 76 77 78 80 79 79 76 77 78 79 84 84 85 84 85 85
57 57 57 57 57 57 56 56 56 56 57 57 58 59 55 56 81 81 81 80 82 82 78 82 83 77 77 70 78 76 69 73 75 77 75 79 71 72 81 84 82 83 84 85 86
57 57 56 56 56 56 56 55 55 56 57 57 58 59 51 74 80 79 81 78 81 83 81 83 84 77 74 76 72 68 68 60 71 74 76 75 63 75 83 82 81 83 83 84 85
57 56 56 55 55 55 55 55 55 56 57 58 57 57 55 76 70 77 78 72 77 79 79 82 77 70 70 62 59 62 55 59 65 74 74 74 68 77 83 83 80 81 82 83 83
56 56 56 55 55 54 54 54 58 59 61 66 65 56 62 65 77 78 82 79 73 73 71 69 67 61 62 59 49 54 57 61 60 69 72 71 70 75 80 81 79 80 81 82 82
56 56 55 55 55 54 55 60 64 58 59 58 61 60 68 76 78 75 78 74 73 68 59 65 56 52 58 62 62 62 60 59 64 72 70 70 70 74 79 79 79 79 80 81 82
56 55 55 55 54 54 56 54 61 60 48 61 62 63 69 73 63 70 78 66 64 57 63 60 53 62 65 65 63 61 58 57 62 68 68 68 67 73 76 77 79 80 80 80 82
55 55 54 54 54 54 57 61 70 65 48 56 63 63 65 68 61 63 72 68 62 58 59 56 61 67 64 62 59 60 56 57 54 62 68 66 63 67 74 77 80 81 83 84 82
55 54 54 53 50 59 59 65 69 63 41 54 59 64 68 67 58 72 73 68 63 57 61 60 67 65 63 60 61 54 63 59 55 52 46 65 50 64 70 73 77 79 79 81 83
55 54 53 53 52 54 58 64 67 55 29 60 60 73 69 60 64 65 74 67 58 59 60 56 60 60 58 60 64 58 64 58 54 50 53 56 53 59 69 68 73 78 80 81 81
54 54 53 55 55 59 64 64 56 36 30 55 61 57 57 60 61 64 63 67 67 58 60 59 68 64 64 65 66 66 60 58 56 51 40 52 54 56 62 68 74 80 81 80 81
54 54 53 58 51 61 59 53 36 31 58 54 55 59 57 57 57 60 55 53 51 45 45 54 56 63 66 57 62 61 54 42 36 36 37 56 54 58 68 74 77 78 80 81 81
53 52 55 58 61 60 53 39 28 45 48 61 58 59 53 59 58 57 55 51 57 55 51 47 43 57 64 58 55 55 52 43 32 34 38 53 48 59 74 77 80 81 81 82 81
52 54 54 57 61 59 42 28 36 45 52 52 56 50 52 57 56 56 54 54 59 59 49 49 50 65 64 64 62 55 48 57 47 48 40 47 55 66 74 75 77 78 80 78 80
51 50 51 62 61 50 35 31 42 52 50 49 43 52 47 53 51 54 53 59 54 60 62 54 45 60 63 64 63 58 61 46 48 35 34 45 51 54 64 70 74 75 76 78 81
49 41 56 62 56 41 30 36 44 53 51 44 48 41 47 43 52 52 49 45 59 58 60 56 52 51 60 54 52 53 50 51 52 50 40 38 46 62 60 66 72 74 76 76 78
47 34 59 59 37 39 35 42 47 49 52 43 47 47 41 45 46 49 50 52 59 58 51 52 49 42 50 62 65 61 53 53 42 44 50 46 45 68 68 72 74 74 76 77 79
40 44 56 52 32 36 44 44 47 45 46 46 43 52 50 46 43 49 51 57 57 55 48 50 47 38 45 54 59 55 58 58 56 54 46 40 47 69 70 70 73 72 77 77 78
39 32 45 44 46 41 40 41 41 50 45 45 46 51 49 47 50 46 49 55 57 55 51 52 46 42 36 39 48 45 52 58 56 46 48 49 53 61 65 64 65 67 76 77 78
39 35 45 34 38 42 44 43 38 41 49 48 40 44 46 42 45 45 50 52 53 51 53 51 41 45 48 51 52 50 51 53 52 54 47 51 54 61 65 68 70 73 74 76 77
33 36 45 42 42 42 42 41 42 43 43 40 42 46 48 41 45 44 46 46 45 51 51 52 40 46 43 50 50 48 51 53 53 54 55 56 55 66 69 71 71 73 75 75 76
45 48 41 39 41 40 39 42 45 47 48 46 42 45 45 48 53 52 50 49 48 47 45 45 42 39 34 46 46 39 48 52 53 57 56 48 55 62 63 67 69 72 73 74 75

GFSSW_sfc_temp_096.txt.gz
Temp
60 60 60 60 59 59 59 58 58 58 58 59 59 59 59 58 57 57 54 64 61 66 65 69 67 67 65 59 61 61 46 43 47 52 58 67 66 73 74 70 70 75 71 73 71
60 60 60 59 59 59 58 58 57 57 58 58 58 58 58 58 52 52 63 67 65 66 66 66 64 65 57 57 59 54 44 51 58 61 62 65 62 65 65 66 68 71 70 70 69
60 59 59 59 59 59 58 57 57 57 58 58 58 58 58 57 50 60 68 66 67 67 68 68 68 66 57 58 57 54 53 61 62 64 64 63 62 65 60 60 67 69 67 67 67
59 59 59 59 59 58 57 57 57 57 57 58 58 58 58 54 50 66 68 67 67 66 66 65 63 56 54 54 61 52 60 62 65 67 65 64 64 65 62 69 73 72 70 67 66
57 58 58 58 58 58 57 57 57 57 57 57 58 58 52 47 52 69 68 68 68 67 64 63 60 58 54 57 59 56 61 65 67 67 67 68 65 66 66 71 71 72 70 67 67
57 57 57 57 57 57 57 56 56 56 56 57 57 58 47 39 65 69 68 68 68 67 67 66 64 65 60 59 58 64 63 63 65 65 66 64 63 60 67 70 72 73 71 66 68
57 57 57 57 57 57 56 56 56 56 56 57 57 55 48 45 62 62 63 63 67 67 65 69 69 62 62 58 65 63 57 61 61 62 61 66 59 59 68 69 68 70 72 72 71
57 57 56 56 55 55 55 55 55 55 56 56 57 52 42 61 59 60 61 64 68 68 68 69 68 63 61 63 62 55 53 46 58 61 64 60 54 63 68 66 66 68 71 71 71
56 56 55 55 55 55 55 54 55 56 56 57 51 47 40 63 58 63 64 62 66 68 64 74 64 59 58 51 46 48 45 46 50 61 59 58 54 63 68 67 65 68 71 72 72
56 56 55 55 54 54 54 54 55 55 55 58 56 44 51 56 65 69 65 66 62 61 61 58 54 49 46 44 39 42 42 40 44 52 58 55 55 60 62 62 62 65 70 67 66
56 55 55 54 54 54 51 47 48 47 50 46 48 47 54 64 68 65 68 64 62 57 49 54 44 39 45 50 50 48 46 44 45 56 54 53 55 57 58 61 61 64 66 65 64
55 55 54 55 54 53 48 41 50 52 41 53 53 53 57 59 51 58 65 55 55 48 51 47 42 50 52 51 49 48 45 45 51 56 55 52 52 55 57 60 61 62 66 64 61
54 54 54 54 53 46 42 48 58 57 39 46 52 51 53 56 49 52 59 55 50 48 49 44 51 56 52 49 47 46 44 45 46 52 52 48 50 54 60 60 63 66 68 69 65
53 53 53 53 45 44 44 56 57 50 30 40 47 52 56 56 48 59 62 55 51 46 49 47 55 53 52 49 50 42 53 51 49 44 39 47 38 50 55 57 60 63 67 68 64
53 53 53 53 40 43 52 55 55 46 21 50 52 65 59 52 55 56 61 54 47 48 48 44 47 48 48 50 53 47 54 51 50 42 39 41 35 44 49 51 56 62 67 72 66
53 53 52 47 40 48 52 51 45 29 21 44 54 52 49 52 53 56 55 57 55 46 49 47 54 50 50 55 55 56 51 50 45 41 30 39 39 44 43 51 57 64 69 71 64
52 52 50 49 37 48 48 41 27 23 45 42 43 47 47 47 50 51 49 46 41 35 37 43 47 52 55 47 52 50 43 32 28 29 29 45 39 44 52 57 59 61 66 69 71
51 51 48 48 43 45 45 34 22 36 38 46 44 46 44 48 48 48 45 41 46 43 37 34 32 47 52 49 44 44 43 32 27 27 32 44 35 42 57 61 64 65 68 70 70
50 41 40 43 45 47 36 26 28 35 42 39 42 39 41 46 44 46 44 44 47 47 37 35 37 51 53 56 52 45 41 48 38 37 32 37 43 52 58 56 59 62 63 66 67
42 37 37 46 44 41 33 29 32 41 42 41 32 37 32 35 37 40 43 48 49 51 52 44 36 50 53 52 51 50 52 38 38 29 27 35 38 42 49 50 57 57 59 61 64
42 31 41 45 45 37 24 28 35 44 44 38 35 34 36 35 36 36 37 45 45 48 51 46 40 42 49 44 43 44 42 45 44 37 30 27 36 50 48 51 50 57 61 61 62
36 21 42 44 30 32 23 35 41 40 44 41 40 38 37 35 33 35 35 38 44 43 41 44 40 36 42 51 52 48 46 44 33 34 36 34 38 56 53 53 54 55 60 62 63
33 29 42 44 25 26 32 36 39 38 39 40 39 41 40 33 31 34 36 44 44 42 41 45 38 33 37 44 45 40 44 47 46 42 36 29 37 59 59 57 57 54 57 61 63
34 24 30 34 36 32 31 32 32 43 40 42 41 44 40 35 38 35 35 42 46 43 48 48 40 35 30 34 39 37 38 45 41 32 34 36 43 52 53 55 54 53 57 59 64
32 25 31 28 28 34 34 33 32 33 42 41 38 40 39 33 34 35 36 38 42 45 48 45 34 38 40 43 43 44 40 43 42 41 35 41 43 50 51 54 55 58 59 62 64
28 25 33 33 37 34 34 32 32 35 38 34 35 39 39 34 36 33 37 39 41 43 42 45 35 37 36 42 42 40 44 44 46 47 46 47 45 49 52 53 53 53 55 61 62
36 37 34 33 32 30 30 35 34 36 38 41 40 39 37 39 41 43 42 44 43 40 37 38 34 30 29 37 38 32 40 44 46 42 44 39 42 48 47 50 49 50 55 57 57

GFSSW_sfc_temp_099.txt.gz
Temp
60 60 60 60 59 59 58 58 58 58 58 58 58 58 59 58 57 55 51 62 58 66 66 65 64 63 60 56 58 55 44 42 46 49 53 63 62 65 69 66 66 70 66 69 69
60 60 60 59 59 58 58 58 57 57 58 58 58 58 58 58 51 50 62 66 64 66 65 63 61 61 54 55 56 52 42 46 55 57 60 60 58 62 63 64 65 67 67 65 67
59 59 59 59 59 58 58 57 57 57 57 57 58 58 57 56 48 58 67 66 66 66 65 66 66 62 53 55 54 52 50 54 58 60 59 55 56 59 58 59 65 67 65 63 63
58 58 58 58 58 58 58 57 57 57 57 57 58 58 57 51 47 61 68 67 67 64 64 62 60 56 51 51 56 49 55 61 60 62 58 60 57 59 57 66 71 70 67 63 62
57 57 58 58 58 58 57 57 57 57 57 57 57 58 51 44 49 64 68 68 65 64 62 60 56 55 51 53 54 52 54 59 62 61 60 63 61 60 62 69 69 69 67 63 64
57 57 57 57 57 57 57 56 56 56 56 57 57 57 48 37 62 64 61 62 64 61 62 62 60 62 56 55 53 58 58 60 61 62 62 61 62 57 62 67 67 67 64 63 64
57 57 56 57 57 56 56 56 55 56 56 57 57 54 46 44 60 59 60 58 62 63 60 64 64 58 59 56 62 61 54 56 57 58 59 62 55 55 64 66 64 66 67 64 65
57 56 56 56 55 55 55 55 55 55 56 56 57 52 42 61 59 57 56 56 62 63 63 65 64 58 56 59 57 53 51 44 55 58 61 60 51 61 66 64 63 63 64 66 65
56 55 55 55 55 54 54 54 54 55 56 56 51 48 40 62 56 61 60 58 61 61 62 71 61 55 54 48 43 44 38 44 49 59 58 54 50 58 61 62 61 61 61 62 65
55 55 55 55 54 54 53 53 54 54 54 56 55 43 49 54 64 66 60 62 60 59 56 56 52 46 44 42 36 40 40 37 42 50 54 51 52 55 59 58 58 58 60 60 62
55 55 55 54 54 54 49 43 44 42 47 44 47 47 52 62 66 63 66 61 59 55 45 49 42 39 42 47 50 47 43 41 42 53 50 48 50 53 56 57 55 56 57 59 62
55 55 55 54 54 54 45 38 47 49 38 50 50 51 55 57 49 57 63 55 52 45 48 44 39 47 49 49 46 45 42 40 46 52 50 49 50 55 54 55 57 57 57 59 60
54 54 53 53 53 45 40 46 56 53 39 44 50 50 52 55 47 50 58 54 49 45 45 40 45 52 49 45 44 43 41 41 43 46 47 45 46 48 54 57 60 61 61 64 62
53 53 52 51 44 40 43 54 54 52 30 37 43 49 53 54 44 58 59 55 48 44 45 44 51 50 46 45 46 39 49 48 45 40 33 44 34 47 50 55 57 60 61 64 62
52 53 52 50 40 38 48 52 52 45 18 46 47 59 55 49 53 51 59 52 44 45 46 42 44 44 44 46 48 43 50 47 46 40 37 39 33 41 49 48 55 59 60 62 64
52 53 52 46 39 42 48 49 46 27 19 42 50 47 45 48 51 52 51 54 51 44 45 44 49 47 46 50 50 52 46 45 42 38 28 38 36 41 44 48 52 58 61 63 63
52 51 50 48 37 43 46 41 28 21 42 37 39 45 44 44 46 48 45 43 38 33 32 40 44 46 51 43 47 46 40 30 27 28 29 42 37 44 50 56 55 55 57 61 63
51 51 47 47 42 42 43 34 21 34 34 43 42 44 39 42 44 45 42 38 43 41 34 31 31 43 49 47 41 41 40 30 26 26 32 41 33 41 52 55 57 58 59 61 62
50 39 38 42 43 41 36 21 27 32 38 36 39 35 36 39 39 41 40 40 43 44 36 33 34 47 49 51 50 42 38 46 37 34 30 34 40 49 51 50 52 53 55 56 59
38 38 36 43 43 38 30 27 31 40 40 39 31 36 31 34 34 36 37 42 39 44 47 41 33 47 50 50 49 48 50 35 35 28 27 32 34 37 44 46 49 50 50 55 60
36 31 42 42 42 31 18 25 34 42 41 36 33 32 34 33 34 34 37 40 41 40 42 42 39 40 48 42 40 41 40 42 41 34 31 28 31 44 45 48 49 49 51 55 59
34 22 44 42 27 27 18 32 40 38 41 39 38 37 34 34 32 34 34 37 45 43 36 42 37 31 39 46 47 44 41 41 32 32 33 31 34 53 49 52 52 51 51 56 60
33 33 39 40 26 28 31 33 37 36 37 37 36 39 38 33 29 34 36 44 44 43 37 38 34 30 33 39 44 40 42 43 41 37 32 29 33 53 55 54 54 50 51 54 58
32 25 30 33 35 31 30 30 30 40 38 39 38 40 36 34 37 32 35 40 43 43 46 41 35 31 30 32 41 35 40 40 38 31 31 34 39 48 49 50 52 53 52 53 59
34 24 29 25 30 31 32 32 31 31 40 40 35 36 35 30 34 32 37 37 43 45 44 41 30 35 40 42 42 40 40 40 39 39 33 38 41 46 46 48 51 55 56 55 56
26 24 30 28 33 31 33 32 32 34 35 35 33 37 37 31 35 31 37 34 35 44 37 43 32 37 34 38 39 37 41 42 42 44 43 41 42 47 50 52 50 51 55 54 53
36 33 30 30 29 28 30 34 34 36 36 39 37 35 33 38 41 43 43 42 41 37 37 38 35 30 29 34 35 31 37 40 39 40 41 37 41 47 46 48 47 48 49 49 49

GFSSW_sfc_temp_102.txt.gz
Temp
60 60 60 60 59 59 58 58 58 58 58 58 58 58 58 58 57 53 48 59 56 64 65 62 61 60 59 53 54 51 43 38 45 46 51 58 56 61 64 61 64 67 63 64 64
60 59 59 59 59 58 58 58 57 57 58 58 58 58 58 57 50 48 60 65 63 65 62 61 58 59 53 52 53 50 41 44 53 54 56 57 54 54 57 57 61 63 64 63 64
59 59 59 59 59 58 58 57 57 57 58 58 58 58 57 55 47 56 66 66 65 65 61 64 63 60 52 51 51 50 46 50 54 56 55 51 54 58 52 55 61 62 63 61 61
58 58 58 58 58 58 57 57 57 57 57 57 57 58 57 49 45 56 67 66 66 62 60 60 58 54 50 48 53 47 52 56 56 58 54 55 53 56 55 62 68 66 65 61 60
57 57 57 58 58 57 57 56 56 57 57 57 57 57 50 42 45 61 65 64 62 62 60 58 55 53 49 51 51 49 51 56 58 58 57 59 57 56 56 64 66 66 64 63 61
56 56 57 57 57 57 57 56 56 56 56 56 57 57 47 35 60 62 58 59 61 59 58 59 57 57 53 52 50 54 55 58 57 59 57 57 59 54 57 63 64 64 63 62 61
56 56 56 56 56 56 56 56 55 55 56 56 57 54 45 42 59 61 61 57 59 60 57 60 61 56 55 51 57 56 51 53 52 54 54 57 52 53 61 63 62 63 63 62 62
56 55 55 55 55 55 55 55 54 55 55 56 56 51 40 59 60 57 57 54 59 60 60 63 62 56 53 56 54 48 47 41 51 55 58 60 49 56 63 59 59 60 61 62 62
55 55 55 54 54 54 54 54 54 55 56 56 50 46 39 59 54 58 58 54 59 57 59 68 59 53 50 45 41 41 36 40 45 56 56 54 50 54 58 59 58 59 59 60 59
55 55 55 54 54 54 54 53 54 54 54 55 53 41 46 50 61 64 59 59 59 56 55 54 50 44 42 39 34 37 38 37 39 46 50 49 49 52 56 55 56 57 58 57 58
54 54 54 54 54 54 48 41 41 40 48 42 43 42 50 57 63 59 61 59 59 54 45 50 44 37 40 45 47 43 41 39 40 49 48 47 48 48 53 54 52 53 55 56 57
54 54 54 54 53 52 43 37 43 45 34 45 45 47 52 53 46 54 60 53 52 45 49 44 39 46 48 46 45 43 40 38 43 49 48 46 48 50 51 52 54 56 54 56 57
53 53 53 53 52 44 39 41 53 49 36 42 46 47 48 51 44 48 55 54 49 46 45 41 46 50 47 43 42 40 39 38 41 43 42 41 43 46 50 52 56 56 57 57 57
53 53 52 52 45 41 41 49 49 47 29 35 40 45 51 51 42 55 57 55 49 45 46 44 51 48 44 43 44 37 45 45 42 38 31 40 30 40 48 51 53 56 56 56 57
52 52 52 52 42 39 44 47 48 42 16 42 43 56 52 46 48 49 56 50 44 45 46 42 45 43 43 43 46 41 47 43 42 36 33 35 31 37 47 48 52 56 56 56 58
52 52 52 45 41 44 43 44 43 28 17 38 46 44 42 45 47 49 50 51 50 45 45 44 48 47 46 48 47 49 44 42 39 35 26 35 34 34 41 46 52 54 56 56 56
52 51 49 48 37 44 41 39 26 20 39 33 37 42 41 40 45 46 44 41 35 33 34 40 44 46 50 42 45 43 37 29 26 26 28 39 34 41 47 51 51 51 52 53 56
51 50 45 46 43 41 39 32 19 30 31 41 40 42 36 39 40 40 41 38 43 40 34 32 32 42 48 45 41 39 38 29 25 26 28 38 30 38 48 50 52 51 52 53 54
49 38 37 41 42 39 34 23 24 29 36 34 37 34 33 38 37 37 38 36 38 39 33 32 33 45 47 48 48 39 34 43 34 33 29 33 38 46 48 48 49 49 51 51 54
37 38 35 41 41 36 23 25 29 35 38 37 28 33 28 32 32 33 35 39 38 41 41 39 32 45 47 48 47 45 46 34 32 26 26 30 31 35 42 45 48 47 47 49 54
35 29 39 40 40 31 12 25 31 40 41 34 32 30 32 32 34 32 34 39 41 41 42 38 36 37 45 40 38 39 37 39 38 33 28 27 31 42 43 46 46 46 48 49 52
34 21 39 45 28 28 18 30 38 35 39 37 36 35 33 32 30 33 33 38 44 43 37 38 34 30 36 45 46 43 39 39 31 30 32 31 34 49 47 48 48 47 50 52 53
30 33 38 38 19 26 34 31 35 34 35 35 34 38 37 31 26 33 34 42 43 39 37 39 32 29 33 38 41 38 39 40 39 35 32 27 31 49 48 48 49 47 51 52 52
30 23 28 32 35 30 28 30 29 38 37 37 36 37 34 31 34 30 33 40 41 41 44 43 34 29 27 29 35 33 38 38 37 31 31 31 35 43 43 44 48 50 52 52 52
33 24 28 20 30 31 31 30 29 30 38 38 34 34 31 28 30 29 34 36 39 42 40 40 28 31 34 35 37 39 36 38 35 36 32 36 36 40 43 45 47 50 55 52 51
29 23 29 28 31 30 32 30 30 32 34 33 31 33 33 28 32 28 34 33 33 39 37 39 31 32 30 37 38 36 38 38 39 40 39 40 38 44 47 48 47 48 49 48 48
35 34 31 29 27 25 26 32 32 35 36 37 34 32 30 36 38 39 39 41 40 37 35 34 34 29 27 35 34 30 36 38 37 38 38 35 39 45 45 46 45 45 46 45 46

GFSSW_sfc_temp_105.txt.gz
Temp
59 60 60 59 59 59 58 58 58 58 58 58 58 58 58 58 57 55 52 64 59 63 65 64 65 65 67 65 65 63 57 53 58 57 63 67 67 71 72 71 73 76 76 75 70
59 59 60 59 59 58 58 58 57 58 58 58 58 58 58 57 53 50 62 64 64 64 64 64 61 64 62 62 63 62 55 57 62 64 63 65 65 67 69 68 70 72 74 71 69
58 58 58 58 58 58 58 57 57 58 58 58 57 58 57 57 49 58 66 65 65 65 67 67 66 64 59 59 59 60 56 59 62 65 65 66 65 69 67 66 70 71 73 71 70
57 57 57 58 58 58 57 57 57 57 57 57 57 57 57 53 48 63 66 66 66 65 63 65 62 59 57 55 60 54 58 62 63 65 65 63 67 65 68 70 75 75 74 73 71
56 56 57 57 58 57 57 56 56 57 57 57 57 57 54 44 47 64 65 63 65 63 61 61 59 59 55 56 58 55 59 60 63 64 64 65 64 64 65 71 74 73 71 72 72
56 56 56 56 56 56 56 56 56 56 56 56 57 57 48 35 60 63 61 62 63 62 63 63 62 64 60 58 58 60 60 62 64 64 63 62 63 63 66 70 69 70 74 75 72
55 55 55 56 56 56 56 55 55 55 56 56 57 54 45 42 60 62 61 60 61 60 60 64 65 62 61 57 62 60 55 59 60 62 61 63 58 59 69 70 69 72 73 73 73
55 55 55 55 55 55 55 55 55 55 56 56 57 51 40 58 61 57 58 56 59 60 59 62 64 61 59 62 59 56 55 50 59 60 62 64 55 64 69 67 67 68 70 70 72
55 55 55 54 54 54 54 54 54 55 56 56 51 46 39 59 53 60 58 54 60 58 60 66 63 58 57 52 50 50 47 46 52 60 62 61 58 64 67 65 65 66 68 69 70
55 54 54 54 54 53 53 53 55 55 55 55 53 41 46 49 58 61 61 57 57 55 55 55 54 51 51 49 40 44 43 47 50 57 57 57 56 62 66 63 64 66 68 69 70
54 54 54 53 53 53 50 46 44 42 46 40 41 41 47 55 60 59 60 56 58 55 46 51 44 42 47 50 52 50 48 48 51 56 55 55 57 58 62 63 64 65 66 67 68
53 53 53 53 53 52 45 41 43 41 31 43 44 45 50 54 44 53 61 52 52 44 50 46 39 49 52 50 49 49 47 47 50 54 54 55 53 59 60 62 65 65 66 67 67
53 53 53 52 52 45 42 42 50 46 32 38 46 44 47 50 43 47 54 54 51 46 45 41 49 53 49 47 44 46 45 46 46 51 53 50 50 56 59 60 62 64 66 66 66
52 52 52 52 45 42 41 48 49 46 26 35 40 46 50 51 41 55 59 55 51 46 46 45 52 48 45 45 47 41 49 48 47 45 40 50 41 51 58 58 61 64 65 64 64
52 52 52 51 42 40 45 47 48 42 16 42 43 56 52 46 49 48 57 53 47 47 48 44 46 46 44 46 48 44 49 48 48 45 43 45 42 48 53 55 59 62 61 61 63
52 52 51 45 42 45 46 45 42 24 18 36 43 43 42 46 47 51 51 56 55 49 48 48 52 51 50 51 51 53 48 46 44 43 34 42 44 45 51 55 57 58 59 60 61
51 51 49 47 40 45 44 40 24 20 38 33 32 35 40 40 44 46 44 43 41 37 38 44 46 51 53 46 50 50 45 35 31 32 33 44 40 48 55 55 56 56 59 59 60
51 49 45 46 44 45 41 31 19 28 30 40 36 36 33 39 41 43 42 40 42 41 39 35 34 46 51 49 44 45 45 38 28 30 36 42 38 48 55 56 56 58 58 59 60
48 41 40 42 43 42 34 22 24 28 34 33 38 30 33 36 38 40 37 37 39 40 37 36 37 48 49 53 52 43 39 48 39 39 35 41 45 52 52 52 54 55 56 57 58
40 37 38 42 43 38 26 25 30 37 38 37 29 34 28 33 34 35 36 37 37 43 43 41 36 47 49 52 51 48 51 39 39 29 28 37 39 43 47 51 53 55 55 57 58
36 33 42 43 43 31 20 26 32 40 40 35 32 31 33 31 33 33 34 38 42 40 44 40 40 41 48 45 43 44 42 44 44 40 34 31 39 50 51 54 54 54 54 55 56
35 26 41 44 29 29 26 31 37 36 40 38 38 36 34 33 32 34 33 37 44 42 36 40 37 35 40 49 50 49 45 45 37 35 39 39 40 54 53 55 54 54 54 55 56
31 32 41 40 22 27 34 33 35 35 36 36 35 38 39 34 29 34 36 43 43 41 38 40 35 32 36 41 46 42 44 45 43 42 39 35 40 52 53 52 54 54 56 54 55
30 22 31 36 35 30 29 30 31 38 37 39 36 38 35 34 37 33 34 41 42 43 43 43 36 32 32 33 37 37 41 43 43 38 39 40 43 47 49 49 51 52 56 55 55
34 27 31 22 30 32 32 31 30 30 38 39 35 34 32 29 32 32 36 38 42 43 40 39 31 34 36 38 38 39 40 41 40 41 38 41 41 47 48 49 49 52 53 52 50
27 28 31 30 32 30 32 31 29 32 34 33 32 34 35 30 32 30 35 36 35 41 39 37 31 32 33 38 39 37 41 41 42 42 42 43 43 47 51 50 47 46 47 46 46
35 36 34 31 30 29 29 32 33 35 37 39 35 33 33 36 39 40 42 41 41 38 36 35 34 33 30 36 37 33 39 41 41 42 41 38 42 47 46 43 42 43 44 43 43

GFSSW_sfc_temp_108.txt.gz
Temp
59 60 60 60 59 59 59 59 58 58 58 59 58 58 59 58 58 68 64 72 71 65 64 75 75 76 79 77 79 80 67 65 69 70 74 77 75 79 82 80 82 84 84 85 83
59 59 59 59 59 59 58 58 57 58 58 58 58 58 58 57 61 63 72 66 64 64 72 71 71 74 72 73 74 71 66 68 77 77 73 75 76 79 78 80 80 80 84 84 83
58 58 58 58 59 58 58 57 57 58 58 58 58 58 57 60 61 71 65 66 66 66 75 76 77 73 68 72 72 70 65 74 75 77 79 77 77 81 77 76 81 79 82 84 84
57 57 57 58 58 58 57 57 57 57 57 57 58 58 57 61 54 73 65 65 66 74 72 72 71 67 66 66 72 63 72 73 76 76 75 73 79 76 78 78 85 85 84 83 84
56 56 57 57 57 57 57 56 56 57 57 57 57 58 59 54 57 77 66 70 73 72 70 69 67 67 63 69 70 66 69 73 73 74 74 75 72 73 75 81 82 84 82 82 84
56 56 56 56 56 56 56 56 55 56 56 57 57 57 56 43 70 73 71 69 71 71 72 72 69 72 68 67 66 71 70 70 72 71 72 68 71 73 75 79 79 80 81 84 85
56 55 55 55 55 55 55 55 55 55 56 56 57 59 50 48 68 73 70 69 69 68 67 73 72 69 69 64 71 69 63 67 68 69 69 72 66 68 77 79 77 79 82 84 86
55 55 55 55 55 55 54 54 54 55 55 57 57 57 45 64 70 67 69 66 68 69 67 70 68 65 67 70 66 62 63 57 69 71 70 69 61 73 79 77 77 79 81 82 84
55 55 54 54 54 54 54 54 54 55 56 57 56 52 47 64 57 65 67 63 67 68 68 70 68 64 65 58 57 60 55 58 62 70 69 67 64 75 79 77 76 77 79 81 82
55 54 54 54 54 53 53 53 55 55 60 61 56 41 51 53 62 66 71 67 62 62 59 60 61 57 58 57 47 53 54 57 56 65 65 65 65 73 74 75 73 75 78 80 81
54 54 54 54 54 53 54 60 54 52 51 46 49 44 52 58 63 61 68 62 62 59 54 58 51 48 56 58 59 59 56 54 60 65 62 62 65 70 75 73 73 75 77 79 80
54 54 54 53 53 52 56 50 43 45 34 51 50 50 54 58 48 55 65 56 55 51 59 53 47 59 61 59 54 50 46 52 58 61 60 62 63 69 72 72 73 75 77 79 80
53 53 53 52 53 53 53 50 57 53 39 47 54 52 53 54 48 51 60 59 55 54 54 49 55 58 55 52 50 50 46 45 49 58 59 59 57 63 70 73 75 76 77 78 77
53 52 52 52 50 54 52 57 58 53 31 44 46 50 51 53 46 61 62 59 57 52 54 54 59 55 52 49 51 47 57 54 50 46 46 60 48 60 64 67 71 73 74 75 74
52 52 52 50 52 50 54 57 56 47 24 46 40 55 48 47 54 56 64 58 51 54 54 49 52 51 50 52 54 50 57 52 51 50 48 53 48 57 63 62 67 71 72 72 73
52 52 52 54 54 56 57 55 50 32 23 39 43 37 37 49 51 54 54 60 61 55 56 55 60 59 56 55 55 56 51 52 52 50 40 50 51 54 60 64 67 68 69 70 71
52 52 52 56 50 56 55 49 33 29 44 37 37 35 36 41 47 50 48 48 48 42 44 52 52 57 59 51 52 53 48 39 36 37 39 53 49 55 62 65 68 66 68 70 71
51 49 52 56 56 54 51 40 26 34 35 45 41 37 32 37 42 49 49 46 50 51 49 43 39 52 57 54 49 48 48 42 30 36 41 50 41 53 65 68 67 68 69 70 70
50 56 55 54 54 54 45 35 32 34 41 38 42 33 34 39 35 41 40 39 44 47 44 44 44 55 58 59 58 49 44 55 44 45 41 48 52 57 62 62 63 66 66 68 70
52 53 51 54 54 50 40 29 36 43 43 43 34 37 28 33 32 34 38 39 40 46 50 47 41 52 54 57 58 54 57 42 46 34 33 45 47 52 54 58 61 63 66 66 68
51 48 52 55 52 48 31 35 37 45 45 39 37 35 36 35 37 32 33 38 42 45 51 48 48 45 52 49 47 47 46 48 50 47 39 39 46 59 59 61 61 63 64 64 65
48 38 52 54 41 40 36 38 39 42 46 43 43 41 38 38 37 37 35 38 45 41 38 45 43 41 46 52 58 55 50 50 41 40 45 44 46 61 60 61 62 62 63 65 65
45 47 54 49 33 36 41 39 40 40 42 41 40 43 45 39 34 40 41 47 48 45 38 42 40 37 40 46 52 50 53 54 52 51 44 41 46 61 60 60 61 60 63 63 62
42 33 47 48 45 37 36 36 37 44 41 44 41 45 41 40 44 38 40 46 49 46 43 46 41 37 36 40 47 43 48 52 50 44 46 47 50 55 57 57 58 59 56 53 55
42 36 40 34 39 39 39 37 36 35 43 45 41 41 37 32 38 38 42 44 48 44 42 41 37 41 44 44 44 45 46 49 48 49 43 49 49 54 54 56 53 52 51 52 50
35 38 43 43 39 37 38 37 34 38 39 39 38 41 41 35 37 36 41 42 41 45 42 40 37 37 38 45 44 42 47 49 50 49 49 50 50 55 54 51 48 49 48 46 46
50 48 45 39 38 37 39 37 37 40 42 43 41 39 39 43 47 47 48 47 46 43 38 37 37 37 35 42 41 37 44 48 50 50 48 45 48 51 49 44 42 44 45 43 42

GFSSW_sfc_temp_111.txt.gz
Temp
59 59 60 59 59 59 59 59 58 58 59 59 59 59 59 58 58 72 71 77 74 66 65 80 82 81 82 80 84 85 69 66 72 74 79 88 81 87 91 88 89 91 91 91 91
59 59 59 59 59 59 59 58 58 58 58 58 58 58 58 58 63 69 75 67 66 66 72 75 76 79 76 77 79 75 68 69 80 83 81 84 82 85 83 84 84 84 89 90 90
58 58 58 58 58 58 58 57 57 58 58 58 58 58 58 60 64 74 65 66 66 68 73 79 81 79 73 78 77 75 67 76 80 84 85 84 84 86 83 80 85 83 87 89 90
57 57 57 58 58 57 57 56 57 57 57 58 58 58 58 63 57 77 66 66 67 75 77 76 75 71 70 69 78 70 75 77 78 82 82 79 83 81 83 83 90 91 91 88 88
56 56 56 57 57 57 56 56 56 56 57 57 58 58 60 59 62 82 68 72 78 77 75 73 71 71 68 72 75 72 74 77 79 79 80 80 77 78 80 86 88 89 89 88 87
56 56 56 56 56 56 56 55 55 55 56 57 57 57 58 49 76 79 79 77 76 76 75 76 73 76 71 71 72 76 75 76 77 77 77 74 75 77 79 84 84 84 85 87 88
56 55 55 55 55 55 55 55 55 55 55 56 57 61 55 55 75 78 78 75 78 77 73 78 79 74 73 68 76 74 68 72 74 75 74 76 69 71 80 83 80 80 84 86 88
55 55 55 55 54 54 54 54 54 55 55 56 57 60 51 71 75 71 74 72 77 78 74 77 79 73 71 75 71 66 67 60 71 74 74 71 62 76 84 82 80 81 83 85 87
55 55 54 54 54 54 54 54 54 55 57 57 60 58 51 70 65 71 71 65 72 74 74 74 72 66 67 61 59 63 56 59 64 76 74 71 64 74 82 81 79 82 84 85 86
54 54 54 54 54 53 53 53 58 58 62 68 65 53 60 57 67 68 71 71 65 66 65 63 64 59 60 59 49 55 57 61 63 73 73 70 67 73 79 80 79 81 82 84 84
54 54 54 54 54 53 56 66 60 59 59 51 54 52 56 65 69 65 68 62 62 61 53 59 53 51 57 60 63 62 58 58 64 71 67 66 67 71 76 78 77 79 80 81 83
53 53 53 53 53 53 57 56 54 51 36 54 57 59 64 61 53 60 63 48 47 50 57 55 49 60 64 64 61 60 56 55 63 67 64 64 64 71 74 77 80 79 79 81 83
53 53 53 53 53 54 59 57 65 56 42 51 59 58 53 55 48 54 58 52 42 48 54 51 56 63 62 60 58 58 55 54 55 60 59 61 59 64 72 75 78 79 80 82 83
53 53 52 52 50 61 60 63 64 58 37 49 53 53 55 51 44 63 63 55 46 41 56 57 63 61 59 57 60 52 61 56 53 49 41 56 45 60 67 70 75 77 78 80 82
52 52 52 52 55 57 60 63 62 49 29 52 53 62 57 48 53 55 66 59 47 45 48 54 57 57 55 57 60 55 59 54 53 50 50 53 48 58 69 66 70 74 77 79 79
52 52 52 59 59 62 63 61 55 32 29 46 54 50 47 46 52 57 60 63 60 50 46 57 66 61 60 63 62 61 54 53 53 51 41 51 52 54 58 64 71 75 75 76 77
52 52 53 61 55 62 60 56 35 33 50 43 44 48 45 40 40 54 52 50 48 43 38 51 51 63 64 56 60 56 49 34 32 35 37 55 50 55 66 68 71 71 73 73 75
52 50 53 62 63 60 57 43 29 41 42 49 48 46 37 38 42 43 50 48 54 53 48 44 39 53 61 58 52 52 51 38 29 32 38 54 45 56 68 72 74 73 74 73 74
50 59 60 59 60 59 52 36 38 39 46 44 48 40 41 44 35 36 44 42 50 55 43 44 45 61 61 62 61 52 48 57 44 47 42 49 55 62 68 69 69 70 71 72 73
57 58 57 59 60 56 46 35 43 48 48 48 39 43 35 39 36 32 37 40 38 47 54 50 43 57 60 62 62 57 61 46 47 34 35 47 49 52 58 61 65 66 67 70 71
54 52 57 61 59 54 36 41 44 50 49 44 42 40 42 39 41 32 33 42 44 44 52 51 48 49 57 51 52 53 51 53 53 49 39 37 45 60 59 62 62 66 69 69 69
54 43 58 60 46 46 42 43 44 47 51 47 46 45 42 42 40 39 38 40 46 43 38 46 44 43 48 60 63 60 54 54 45 43 48 44 39 65 65 66 66 66 67 69 70
53 53 60 55 39 47 47 45 46 46 46 45 43 46 48 42 37 43 44 50 51 44 38 42 43 32 36 50 58 53 56 55 54 53 43 39 45 65 65 64 65 63 60 62 62
47 36 53 57 52 43 41 41 43 49 47 48 46 50 46 42 47 41 44 49 52 49 46 45 41 36 33 35 49 47 53 56 53 44 47 48 43 53 61 61 56 57 56 58 58
47 41 48 39 44 44 44 43 42 41 48 51 46 46 43 38 42 42 47 48 52 49 49 45 38 43 44 45 49 45 47 53 50 51 44 48 49 51 52 54 52 52 53 53 52
34 42 50 50 44 42 41 43 41 43 45 43 43 45 45 41 43 40 44 45 44 50 46 46 37 44 43 50 49 46 51 52 54 54 53 55 53 60 57 55 50 49 50 48 47
54 55 49 43 44 43 44 43 42 45 47 48 46 43 42 46 50 51 51 50 49 45 43 41 38 39 37 46 46 40 48 51 53 56 54 47 51 56 48 47 44 44 43 43 43

GFSSW_sfc_temp_114.txt.gz
Temp
59 59 59 59 59 59 59 59 58 58 58 59 59 59 59 58 58 66 65 74 74 67 68 78 80 81 80 76 80 82 65 62 66 69 73 85 83 87 90 86 89 92 89 89 91
58 59 59 59 58 58 58 58 57 58 58 58 58 58 58 58 59 64 72 67 66 65 74 72 71 77 73 73 75 72 65 64 75 78 77 82 84 86 83 82 83 87 91 91 90
58 58 58 58 58 58 57 57 57 57 58 58 58 58 58 59 61 69 66 67 68 68 74 75 75 74 70 73 72 71 64 72 75 80 82 81 82 88 81 78 83 83 85 88 88
57 57 57 57 57 57 57 56 56 57 57 57 58 58 58 59 55 73 67 67 69 74 74 72 71 67 66 66 73 66 73 74 76 80 80 78 83 81 82 82 88 90 88 88 86
56 56 56 57 57 56 56 56 56 56 56 57 57 58 58 56 60 79 67 70 76 76 72 72 69 68 63 68 71 69 71 76 79 78 79 80 77 78 79 85 88 89 89 86 85
56 56 56 56 56 56 56 55 55 55 56 56 57 57 54 46 74 78 77 77 77 75 72 72 70 73 68 68 67 72 73 74 77 77 78 74 75 77 79 83 83 83 84 85 85
55 55 55 55 55 55 55 55 55 55 56 56 57 59 53 52 72 74 74 72 74 74 69 73 74 70 71 65 73 71 65 71 73 76 74 77 69 70 79 82 79 81 82 84 85
55 55 55 55 55 54 54 54 54 55 55 56 57 57 49 70 74 72 73 70 73 73 71 76 77 72 68 71 68 64 64 57 69 73 74 73 61 73 79 78 77 79 80 81 83
55 55 55 54 54 54 54 53 54 55 56 58 57 57 51 71 67 72 73 67 69 70 71 74 71 64 66 59 56 59 53 56 61 72 71 69 62 72 79 78 77 78 79 81 81
55 54 54 54 54 53 53 53 58 58 62 66 66 54 61 58 65 69 73 69 64 63 60 60 60 55 56 55 43 49 52 56 58 67 70 66 65 72 76 77 75 78 80 81 82
54 54 54 54 54 53 55 65 58 57 58 51 53 53 56 65 69 64 68 64 62 58 47 51 49 45 49 55 58 57 57 56 62 69 66 65 66 71 76 75 75 77 79 80 81
54 54 54 53 53 53 56 57 55 53 40 55 56 57 62 66 55 61 67 54 54 44 50 40 40 53 56 58 55 56 55 56 64 68 62 60 59 69 73 74 74 76 77 78 80
53 53 53 53 53 55 60 59 66 62 42 51 62 60 60 62 55 57 61 56 50 44 42 33 45 56 54 54 53 55 53 56 57 56 53 57 53 59 70 74 76 78 79 80 78
53 53 53 52 51 60 59 65 65 60 35 51 56 59 61 63 54 65 63 57 44 37 38 39 48 52 51 50 56 51 61 59 58 51 37 55 40 56 63 66 71 73 75 77 78
52 53 52 53 54 57 61 64 63 54 28 54 56 69 65 56 55 56 63 53 42 39 41 37 42 50 50 52 59 55 63 59 57 50 44 47 43 51 60 58 63 71 75 76 77
52 52 52 58 55 62 64 61 56 33 29 48 55 53 52 54 51 55 54 60 58 44 44 42 53 54 57 62 62 64 57 55 53 48 35 44 44 47 55 59 63 71 75 75 75
52 52 52 60 55 63 60 54 34 32 52 45 45 51 50 46 46 49 48 50 45 38 36 46 50 56 62 56 61 57 50 36 31 33 32 49 44 49 63 68 69 71 73 73 73
52 51 56 62 64 61 56 44 30 43 43 51 49 50 44 46 44 44 43 47 54 49 42 38 30 46 58 57 53 51 49 36 28 29 36 49 42 51 65 71 74 72 72 72 72
51 56 56 60 61 59 48 35 37 41 47 44 48 43 43 47 39 37 34 40 45 47 37 37 40 51 55 62 59 50 44 53 43 43 38 46 51 63 67 66 69 68 69 68 71
52 57 58 61 61 53 44 37 44 50 49 48 39 44 37 41 40 34 36 39 42 47 50 43 35 50 49 61 60 55 57 41 44 32 30 36 45 46 57 60 64 63 67 69 71
51 51 57 62 58 47 36 42 46 52 51 46 43 40 41 40 42 38 38 43 47 44 50 47 42 44 55 46 48 50 48 50 49 46 36 33 36 55 58 60 53 65 66 62 64
54 43 59 61 42 46 42 45 46 49 54 50 49 46 43 44 40 42 41 45 52 46 40 46 40 35 46 59 62 58 52 52 41 40 45 42 41 57 58 64 65 58 62 60 61
51 53 60 56 37 44 49 48 50 47 49 47 46 48 49 44 37 40 46 53 53 49 42 44 37 30 38 48 57 52 55 55 53 51 41 37 42 54 56 51 59 56 57 58 57
47 37 52 54 52 45 44 44 44 52 49 51 49 49 46 43 47 37 44 50 53 51 48 48 41 33 28 32 41 45 53 55 52 42 43 43 45 52 49 50 52 52 54 53 53
46 41 49 39 44 45 46 45 43 43 50 52 47 46 43 38 41 41 45 47 50 51 51 47 36 38 42 45 36 39 42 50 50 50 44 42 44 47 46 44 49 52 52 50 49
35 42 52 49 47 44 41 44 43 45 46 44 43 45 45 40 42 38 43 43 42 48 46 48 35 40 41 49 46 38 42 43 42 46 49 48 47 47 49 51 48 47 46 45 46
52 55 49 44 46 44 44 44 44 46 48 50 47 44 42 46 48 49 50 50 48 44 44 42 37 37 36 46 46 40 48 50 52 55 52 43 45 49 46 44 42 43 44 42 42

GFSSW_sfc_temp_120.txt.gz
Temp
58 59 59 59 58 58 58 57 57 57 58 58 58 58 58 58 56 55 52 60 61 66 67 67 67 65 61 56 60 57 44 47 49 51 57 66 65 70 76 73 76 76 73 78 77
58 58 58 58 58 57 57 57 57 57 57 57 57 57 57 57 51 51 62 66 66 66 64 61 59 61 53 54 56 52 46 49 57 61 61 66 66 67 66 68 70 69 74 79 76
57 57 57 57 57 57 57 57 56 57 57 57 57 57 57 56 48 57 66 66 68 68 64 63 63 58 50 52 52 51 50 57 61 62 65 64 65 69 62 65 70 69 71 75 75
57 56 57 57 57 57 56 56 56 56 57 57 57 57 57 51 46 57 67 67 68 66 64 61 59 52 49 47 54 49 59 60 61 65 63 61 63 64 61 67 74 71 74 75 74
56 56 56 56 56 56 56 56 56 56 56 56 57 57 50 46 48 64 67 66 66 65 60 57 53 51 46 52 53 52 56 60 63 65 65 66 64 64 66 71 75 74 75 70 74
56 55 56 56 56 56 56 56 55 56 56 56 57 57 45 39 62 65 63 64 64 60 59 57 55 56 50 51 50 56 56 58 61 62 64 62 63 64 68 70 72 72 70 71 73
55 55 55 55 55 55 55 55 55 55 56 56 57 54 45 45 58 58 60 58 61 61 56 60 58 52 52 47 54 54 47 53 57 60 60 63 57 60 70 70 68 70 69 69 71
55 55 55 54 54 54 54 54 54 55 56 56 57 50 41 61 58 60 60 59 64 63 61 62 61 54 50 53 51 46 46 39 53 57 61 58 49 63 70 68 69 66 67 68 70
54 54 54 54 54 54 54 54 54 55 56 57 48 45 41 63 57 61 60 59 61 62 60 66 57 50 48 40 38 41 33 38 44 55 55 56 51 63 66 68 68 68 65 67 66
54 54 54 54 54 53 53 53 54 55 56 57 57 41 50 52 59 61 63 62 56 56 52 50 46 39 38 34 27 33 34 38 39 47 52 52 53 61 63 65 68 68 64 64 67
54 54 54 54 54 53 51 47 45 46 47 44 45 46 50 56 60 57 61 57 54 49 39 44 35 31 38 41 41 40 37 35 42 49 47 50 52 58 61 61 64 65 63 64 67
54 53 54 54 53 53 48 48 49 47 34 48 48 49 54 55 48 54 58 48 47 39 43 37 32 42 45 44 41 39 35 34 42 48 47 47 50 57 61 62 65 64 61 64 63
53 53 53 53 53 49 48 50 55 51 34 44 53 52 54 54 48 50 54 49 43 38 39 34 39 47 43 40 37 36 34 34 35 44 47 45 43 49 56 61 62 62 63 64 64
53 52 52 52 48 47 48 54 52 49 28 44 48 54 57 55 48 60 58 51 42 37 39 34 44 42 40 38 40 27 41 40 38 37 30 43 30 42 51 54 57 60 58 59 63
52 52 52 52 43 46 52 53 50 44 22 48 49 62 57 48 51 51 60 49 41 40 36 35 38 36 34 38 41 32 40 39 39 39 36 38 33 38 47 49 55 57 58 59 62
52 52 52 49 44 49 52 51 47 29 24 42 48 45 44 48 49 52 50 54 50 41 40 39 48 43 41 45 46 44 39 40 41 38 27 37 35 34 42 52 54 57 59 61 62
52 52 50 52 45 51 49 45 29 24 45 38 38 43 42 41 43 45 42 40 35 30 31 39 44 47 48 41 45 41 36 25 23 24 26 39 34 40 48 52 55 57 57 61 63
52 51 49 51 49 49 45 33 25 37 37 44 42 42 35 40 40 41 38 34 42 38 33 29 28 43 49 38 38 39 37 26 20 25 27 39 31 38 52 57 57 56 57 59 58
51 43 45 48 50 46 37 25 29 36 42 39 41 34 34 39 34 35 31 34 40 41 32 31 33 47 49 47 44 40 33 43 36 35 29 33 39 49 52 51 53 54 54 53 54
41 43 45 51 49 43 31 33 38 45 45 43 33 37 29 33 32 23 32 38 38 43 45 39 29 44 45 46 49 43 47 34 35 25 23 29 32 34 41 43 47 46 47 48 49
41 38 47 50 47 36 25 31 42 48 48 42 37 34 36 33 34 26 31 39 42 42 44 40 35 38 44 36 36 39 37 37 38 32 26 26 31 45 46 45 43 45 46 45 46
40 33 48 48 32 30 26 40 47 45 48 45 43 40 37 36 33 34 34 38 44 42 35 40 35 30 37 47 48 46 39 39 30 29 32 32 30 45 46 46 45 45 45 45 45
38 38 47 45 26 29 38 43 45 44 43 42 40 42 41 35 30 35 37 45 44 41 36 39 33 26 31 39 43 35 39 41 38 37 32 29 31 44 45 44 45 41 43 43 43
36 29 37 37 37 34 34 37 38 47 45 45 44 43 38 35 37 33 35 41 43 43 47 43 35 30 25 29 35 33 36 40 38 31 36 36 34 39 38 36 39 40 42 41 41
34 31 37 24 29 36 36 38 37 38 45 44 40 39 35 30 32 31 36 38 42 45 41 38 29 33 36 40 36 35 35 38 38 39 36 38 36 36 36 37 37 36 39 39 39
29 32 36 34 40 36 37 36 38 40 39 38 35 38 37 31 34 31 35 35 34 40 37 38 29 34 33 42 35 33 39 37 36 36 38 38 35 39 39 40 38 36 36 36 36
40 41 36 35 34 31 32 39 39 41 42 44 40 37 34 38 41 42 42 41 40 38 34 33 31 30 28 38 38 29 30 33 34 34 38 34 36 37 35 35 34 35 36 35 35

GFSSW_sfc_temp_123.txt.gz
Temp
58 58 58 58 58 58 57 57 57 57 57 58 58 58 58 57 56 54 54 58 60 66 66 64 63 61 59 54 56 55 42 44 45 48 54 63 61 66 70 68 69 71 67 72 72
58 58 58 58 57 57 57 57 56 56 57 57 57 57 57 57 49 54 64 66 66 67 61 58 57 58 51 50 51 49 39 46 53 57 58 63 62 62 63 64 66 69 72 71 71
57 57 57 57 57 57 57 56 56 56 57 57 57 57 57 54 48 53 66 67 67 65 59 59 60 56 47 47 48 47 47 54 56 59 60 57 59 64 60 60 65 65 69 69 69
56 56 56 57 57 57 56 56 56 56 56 56 57 57 57 49 45 54 66 66 67 65 61 58 55 49 45 43 49 45 53 54 53 60 59 57 58 61 57 63 67 69 71 69 69
56 56 56 56 56 56 56 56 56 56 56 56 56 57 50 45 48 60 65 64 63 63 58 55 51 48 42 45 47 45 50 54 56 58 59 61 59 60 62 69 69 71 71 68 70
55 55 55 55 56 56 55 55 55 55 55 56 56 57 45 42 58 60 59 60 60 58 56 55 52 53 48 46 44 48 49 49 53 53 56 56 57 58 64 69 68 70 69 69 68
55 55 55 55 55 55 55 55 54 54 55 56 56 54 44 48 56 56 58 56 58 58 54 57 56 50 49 44 51 49 43 48 50 52 51 57 51 53 64 68 66 66 68 69 68
55 55 54 54 54 54 54 54 54 54 55 56 56 48 41 59 55 58 56 58 61 59 59 60 58 52 48 49 47 42 41 36 48 50 52 51 44 58 62 63 64 65 68 66 70
55 54 54 54 54 54 54 54 54 55 55 56 46 43 42 61 55 60 58 56 58 58 57 64 55 47 46 37 33 36 29 34 39 49 48 48 45 54 60 62 63 66 67 67 69
54 54 54 54 54 53 53 53 54 54 55 55 54 40 49 51 56 59 58 59 54 53 51 47 43 38 35 33 25 31 30 33 34 43 45 42 42 50 56 59 61 64 67 67 66
54 54 54 54 54 53 49 47 45 43 45 43 44 45 48 54 57 55 57 54 51 46 37 42 33 30 34 38 40 38 35 32 37 44 41 40 42 46 52 54 58 62 64 64 67
54 53 53 53 53 53 46 45 48 48 35 46 47 47 52 53 46 52 56 47 44 38 40 35 30 41 43 42 39 37 33 32 39 43 41 39 38 46 51 51 58 61 64 62 64
53 53 53 52 53 49 47 48 54 51 36 45 50 49 51 51 46 48 53 47 42 37 37 32 38 45 42 39 36 36 33 33 34 40 41 37 34 40 49 54 59 63 65 68 62
52 52 52 52 47 46 47 54 53 51 32 42 46 51 55 52 46 56 55 49 41 36 37 34 41 40 38 36 38 29 41 40 34 29 23 36 22 36 43 49 54 60 60 59 60
52 52 52 52 42 44 51 52 51 47 26 46 48 59 54 48 49 49 56 48 39 39 36 33 37 36 33 36 42 35 42 36 34 30 29 30 27 33 43 44 50 53 58 57 56
52 52 52 47 42 46 50 51 48 32 27 41 46 44 42 45 46 49 49 51 48 40 39 38 44 41 40 45 44 45 39 35 35 30 20 28 29 27 38 45 49 53 55 54 54
51 51 49 49 42 49 47 44 30 26 44 38 38 42 40 39 41 43 40 38 33 28 30 38 38 42 45 38 44 39 31 20 18 18 20 36 31 33 44 48 49 50 53 55 56
51 50 47 48 46 47 44 33 26 36 37 43 42 41 34 38 38 38 37 33 40 36 31 27 25 39 47 39 37 36 33 25 14 20 25 38 28 36 47 55 55 55 53 52 49
51 42 42 45 48 46 39 26 31 35 41 38 40 32 32 37 32 34 29 33 38 39 29 30 30 45 46 47 42 36 31 42 32 31 26 31 38 43 46 47 47 47 47 45 46
40 40 43 49 49 43 33 34 38 44 44 42 31 35 28 31 31 20 30 36 36 40 40 36 28 42 45 45 43 39 43 32 33 22 23 26 28 34 39 40 42 41 41 42 43
41 37 46 49 47 38 27 33 41 46 46 40 36 33 33 31 31 23 29 37 39 38 40 37 33 35 42 34 33 36 34 36 37 32 26 24 30 44 40 40 39 40 40 40 40
38 30 45 48 34 32 30 39 46 44 47 43 41 38 35 33 31 32 32 36 41 39 31 38 33 28 35 44 47 43 35 36 28 29 32 30 30 42 42 42 42 41 41 41 41
36 36 45 45 29 31 38 42 44 42 42 41 38 40 38 33 29 33 35 42 42 38 34 37 31 23 28 36 41 35 39 38 37 35 31 27 29 37 39 38 38 38 38 39 40
34 29 37 39 37 35 34 36 37 44 43 42 40 40 36 32 36 31 34 39 42 41 46 41 33 25 19 28 33 31 36 39 37 30 33 32 31 32 33 33 34 35 35 36 38
33 32 38 29 30 33 35 37 36 35 42 41 36 37 33 29 31 30 34 36 40 43 39 36 27 32 34 38 34 33 34 35 33 35 32 33 31 32 33 33 32 33 36 33 34
32 33 36 34 37 35 36 35 36 37 38 36 34 36 35 31 33 30 33 34 32 37 35 35 27 31 31 39 35 31 34 34 34 33 36 34 31 35 35 36 35 35 33 34 34
39 40 37 33 33 30 31 36 38 40 40 42 38 34 34 36 39 39 40 40 38 35 33 31 29 29 27 36 34 27 28 31 32 33 34 31 33 33 32 31 31 33 33 32 33

GFSSW_sfc_temp_129.txt.gz
Temp
59 59 58 58 57 57 57 57 56 56 57 57 57 58 58 57 56 62 58 62 64 65 66 67 67 65 66 64 64 62 55 49 53 54 60 67 64 71 73 69 72 75 75 79 77
59 59 59 58 57 57 57 56 56 56 57 57 57 57 57 57 54 58 65 65 66 66 66 63 61 62 61 60 60 60 51 52 58 60 58 60 61 63 64 66 66 68 74 79 75
59 59 58 58 57 57 56 56 56 56 56 56 57 57 57 55 56 58 65 65 66 67 65 64 63 61 56 57 56 53 52 54 57 58 57 56 58 64 60 60 67 65 69 73 77
59 58 58 57 57 57 56 55 56 56 56 56 57 57 57 53 51 62 65 65 66 67 65 61 60 55 53 51 53 49 53 54 55 55 55 55 59 57 60 62 68 69 69 71 73
58 57 57 57 57 56 56 55 55 55 55 56 56 57 54 55 55 64 63 63 66 65 61 58 55 52 49 49 51 49 50 53 54 55 55 57 55 56 59 65 67 68 69 70 72
57 56 56 56 56 56 55 55 55 55 55 55 56 56 53 51 62 61 60 63 63 63 60 61 56 57 51 49 48 50 51 51 54 54 55 52 55 56 61 66 65 67 68 70 71
56 56 56 55 55 55 55 55 54 54 55 55 56 54 51 53 62 60 60 62 62 62 58 61 61 56 53 48 52 51 46 49 52 52 52 56 52 52 62 62 61 61 63 65 69
56 56 55 55 55 54 54 54 54 54 55 55 56 51 51 61 60 60 61 62 63 62 62 62 61 56 52 53 50 46 45 41 51 54 54 54 46 57 59 58 59 61 62 63 65
56 56 55 54 54 53 53 54 55 56 55 55 51 49 50 62 59 62 62 60 61 61 61 64 59 51 50 44 41 41 39 39 44 52 51 50 47 55 60 58 55 56 58 61 63
56 55 55 54 53 53 53 53 55 54 55 55 53 49 56 53 58 59 62 60 57 56 55 53 49 45 43 43 36 37 37 40 39 47 48 45 44 51 55 55 54 55 57 58 60
55 55 55 54 53 53 50 50 48 47 47 47 47 48 51 56 58 58 60 57 56 52 44 46 42 39 43 42 44 40 38 37 43 48 44 43 44 48 52 53 52 54 55 56 58
54 54 54 54 53 53 47 46 49 51 43 47 47 48 51 54 52 56 60 52 49 42 44 42 38 44 44 43 40 39 36 37 43 48 45 44 42 48 51 51 53 54 55 56 58
54 54 53 53 53 49 48 50 54 53 44 45 49 49 52 53 51 52 56 51 45 40 40 38 43 45 42 42 38 39 36 37 37 43 45 41 41 49 54 55 56 56 56 57 57
54 53 53 52 49 49 49 53 53 52 37 42 46 52 52 53 49 57 57 52 46 40 40 38 43 41 39 38 40 33 43 42 39 35 31 42 26 42 52 52 54 54 55 55 57
52 53 52 53 46 47 51 51 51 49 30 44 47 59 53 50 52 52 58 52 43 42 40 39 39 38 35 38 42 38 43 41 40 35 32 37 29 43 51 48 50 53 56 53 57
51 51 52 47 46 51 51 51 49 34 29 40 47 46 45 48 48 52 51 54 51 42 41 41 47 44 42 45 44 47 41 41 39 32 23 34 34 40 42 35 38 47 46 46 51
51 51 50 50 44 49 50 47 33 30 43 37 39 43 43 41 43 44 43 41 38 34 33 38 40 44 46 40 45 42 37 30 28 26 29 40 37 41 38 39 38 39 38 40 42
51 51 50 49 49 49 46 38 29 36 37 43 42 41 37 41 39 40 40 37 41 38 33 29 32 41 45 41 39 40 34 29 21 26 30 40 32 36 41 39 37 39 37 40 40
50 43 44 46 48 49 41 31 34 37 42 40 40 35 35 38 37 37 34 36 40 40 32 30 30 44 46 47 44 36 32 41 29 34 28 35 37 41 41 37 35 35 36 35 38
42 43 44 47 48 46 35 35 38 44 44 43 34 37 32 35 35 31 34 39 38 42 42 36 27 40 44 47 47 41 44 32 33 22 23 33 30 27 30 31 33 32 33 33 36
42 39 45 48 48 40 30 35 41 47 47 41 37 35 36 34 35 30 33 38 41 40 41 38 34 36 41 38 37 39 37 37 34 32 26 26 25 31 30 32 31 33 32 33 33
40 32 44 46 35 34 32 39 46 44 47 44 43 40 37 36 34 34 34 38 42 41 36 40 35 29 35 44 46 43 38 36 29 30 34 31 24 34 33 33 33 32 32 32 33
37 36 46 46 30 32 38 41 44 43 43 42 39 41 41 36 32 36 37 42 42 40 38 40 33 25 32 39 43 36 38 35 35 34 30 27 26 33 33 32 34 31 32 33 33
37 31 37 41 38 37 34 37 37 45 42 42 39 41 38 36 38 34 35 40 42 41 44 43 35 30 25 29 33 31 34 35 33 31 30 27 26 29 30 30 31 31 32 32 31
36 32 38 30 32 36 39 39 37 36 42 43 38 38 37 32 33 32 35 37 40 43 42 40 31 33 35 37 34 31 32 31 29 32 30 26 26 28 30 30 30 31 31 31 30
33 34 38 37 38 37 39 37 37 38 40 37 37 37 37 34 36 33 36 36 36 40 38 38 31 33 33 38 34 30 32 34 30 31 32 30 28 33 33 33 32 30 30 29 29
39 42 40 35 36 36 36 37 38 40 40 42 40 37 35 37 40 42 42 42 41 38 35 34 33 31 29 36 33 26 28 30 30 31 31 27 30 32 31 30 29 30 29 28 29

GFSSW_sfc_temp_132.txt.gz
Temp
60 59 59 59 58 57 57 57 57 57 57 58 58 58 58 58 59 72 69 68 69 65 66 77 78 77 78 75 76 76 66 65 68 67 70 75 72 79 81 76 80 80 81 86 89
60 59 59 59 58 57 57 57 56 57 57 57 57 58 58 57 68 70 66 65 66 67 76 73 71 74 74 71 74 70 67 68 72 72 68 70 71 74 73 74 75 78 83 85 86
60 60 59 59 58 57 57 56 56 57 57 57 57 58 57 61 66 66 65 65 66 71 75 73 72 71 68 70 70 69 64 71 69 68 68 68 69 75 70 69 74 73 78 81 82
60 59 59 58 58 57 57 56 56 56 57 57 57 58 58 65 59 70 65 65 66 76 74 71 69 66 65 64 66 60 66 66 68 67 65 65 70 67 70 71 77 77 77 78 78
58 58 58 58 58 57 56 56 56 56 56 56 57 58 63 64 64 71 65 69 74 73 70 67 64 63 61 61 62 60 63 64 66 65 66 67 65 66 68 74 76 76 75 75 77
57 57 57 57 57 57 56 55 55 55 55 56 57 57 63 60 71 71 70 72 72 71 69 69 63 64 60 59 58 60 60 62 65 65 66 62 65 66 70 75 72 73 74 75 75
57 57 57 57 56 56 55 55 55 55 55 56 57 63 62 63 72 73 70 71 71 70 65 68 67 64 62 59 61 60 56 63 63 62 65 66 61 65 71 71 70 72 74 75 76
57 56 56 56 56 55 55 54 54 55 55 56 56 62 61 70 75 71 73 71 71 71 69 69 68 63 60 62 60 56 57 55 60 62 64 61 56 68 72 68 68 71 72 71 73
57 56 55 55 55 54 54 54 55 56 56 56 59 59 58 68 67 71 72 67 68 69 68 68 66 60 59 55 56 54 53 54 55 61 60 58 55 65 71 69 66 68 70 70 71
56 55 55 54 54 54 53 54 55 58 59 62 62 56 62 62 66 67 71 68 64 64 62 61 62 57 58 56 50 50 49 53 53 59 60 56 56 63 68 68 67 68 69 69 70
55 55 55 54 54 53 52 58 58 55 57 57 58 57 61 65 67 66 68 65 64 61 55 56 54 53 54 53 52 50 49 50 56 60 53 53 55 60 66 67 66 68 68 69 70
56 55 54 54 54 53 56 57 59 61 52 55 56 57 59 63 59 63 68 60 56 53 53 52 50 53 53 52 49 49 48 49 55 56 54 53 53 61 66 68 68 67 67 69 70
55 54 53 53 53 51 54 59 64 63 55 52 58 59 60 62 58 59 64 59 54 49 50 48 52 52 49 50 47 50 47 48 47 53 56 52 53 61 65 69 64 60 62 64 65
54 53 52 52 47 54 52 63 61 61 48 50 53 59 59 61 55 65 65 59 53 49 49 48 52 48 48 47 49 43 52 49 48 46 41 52 37 54 61 55 51 53 51 48 53
53 53 52 53 50 52 56 62 61 60 34 53 53 66 61 57 59 57 65 58 51 49 48 46 46 44 41 45 49 46 52 49 48 46 41 46 41 53 51 38 41 46 43 40 44
53 53 52 48 49 54 56 60 59 41 32 45 53 52 52 55 55 59 57 60 58 50 50 50 55 51 50 52 52 53 49 51 48 43 32 45 43 47 36 34 36 38 42 39 39
52 52 50 50 45 53 55 54 39 37 51 42 46 50 51 48 50 52 50 49 49 42 43 48 48 52 52 48 53 49 47 41 38 36 38 49 45 35 42 39 37 35 37 37 37
51 51 51 51 52 53 54 44 33 46 44 51 50 50 45 48 47 48 47 45 48 46 46 41 37 48 51 47 44 46 43 38 26 34 37 49 42 39 46 47 42 40 37 37 35
50 45 46 47 51 55 48 35 42 46 48 46 48 43 42 45 44 45 43 45 46 48 39 39 38 50 52 52 51 38 42 46 35 42 34 46 46 47 47 44 40 35 36 33 34
42 42 43 49 53 54 42 40 46 51 52 50 42 46 39 42 42 36 42 47 44 48 49 42 35 46 49 52 52 48 52 39 39 27 27 41 32 31 33 35 36 32 32 32 33
42 35 46 52 54 43 33 44 47 53 54 48 44 42 44 41 44 38 40 45 48 46 48 46 40 43 47 44 44 48 44 42 41 39 32 32 28 32 32 33 32 33 32 32 32
42 33 47 51 38 43 42 48 50 51 54 49 51 47 44 43 41 41 40 45 50 48 42 46 42 37 41 50 52 48 42 42 33 32 39 35 27 36 34 34 34 32 32 32 33
38 36 46 48 34 40 45 46 50 49 50 48 44 47 49 43 38 43 44 48 48 46 44 46 40 34 38 43 49 41 43 41 40 37 31 29 29 36 34 33 34 32 32 32 32
44 32 37 40 43 42 41 43 41 48 45 47 46 48 45 42 44 40 41 44 47 47 45 46 42 34 31 32 37 35 39 41 39 32 31 29 28 31 31 30 32 32 32 32 31
43 37 42 32 36 40 46 44 40 39 46 47 44 46 44 39 40 39 43 43 45 45 47 46 37 40 43 44 38 32 37 36 32 35 33 29 28 30 31 31 31 31 31 31 31
36 39 44 42 43 43 44 45 43 41 44 42 43 46 46 41 43 39 43 44 43 46 45 45 39 41 39 43 38 32 38 40 36 33 35 33 32 35 35 37 37 36 31 30 30
47 48 49 43 44 44 44 45 44 45 45 50 48 44 42 44 48 50 50 49 48 45 43 41 40 38 35 42 32 29 29 32 33 34 33 29 31 34 36 36 34 35 35 31 31

GFSSW_sfc_temp_135.txt.gz
Temp
61 60 60 60 59 58 58 58 57 57 58 58 58 59 59 59 59 74 76 68 70 66 66 84 84 84 84 82 82 84 70 68 73 75 78 84 78 84 87 82 84 87 86 89 93
61 60 60 60 59 58 58 58 57 57 58 58 58 58 58 58 72 76 66 66 66 67 80 79 78 80 79 78 80 75 70 72 81 78 75 78 78 80 79 79 80 83 88 90 90
61 60 60 60 59 58 58 57 57 57 57 58 58 58 58 62 70 74 65 66 66 69 82 80 79 78 75 80 78 75 69 77 78 78 76 74 75 80 77 74 79 78 82 86 86
60 60 60 60 59 58 58 57 57 57 57 57 58 58 58 72 62 76 66 66 67 77 80 77 76 73 73 73 78 66 75 76 75 77 73 71 75 72 75 76 82 83 83 82 82
59 59 59 59 59 58 57 57 57 57 57 57 57 58 67 68 72 77 67 70 79 79 75 73 71 71 68 72 72 68 71 74 74 73 73 74 71 71 73 79 82 82 81 80 82
58 58 58 59 58 58 57 56 56 56 56 57 57 57 67 63 78 79 77 77 78 77 74 75 70 71 68 67 66 71 69 69 72 72 73 69 71 72 76 81 79 78 79 82 82
58 58 58 58 58 57 57 56 56 56 56 56 57 66 65 68 80 81 77 77 77 75 71 73 73 69 69 66 71 67 62 69 73 71 69 72 66 71 78 77 76 78 80 81 83
58 57 57 57 57 57 56 56 55 55 56 56 57 66 65 77 82 77 80 76 78 77 74 75 74 69 66 70 66 63 65 60 68 68 71 67 59 73 78 76 74 76 78 78 80
57 57 56 56 56 55 55 55 55 56 57 57 61 64 64 68 71 77 78 73 74 75 74 73 71 67 67 60 61 65 57 60 64 71 66 65 60 71 77 75 73 75 77 77 78
57 56 55 55 55 54 54 55 56 56 61 68 70 60 67 65 72 74 77 74 70 69 67 66 66 62 65 62 53 56 57 60 59 68 67 63 62 69 74 74 73 74 75 75 75
57 56 55 54 54 53 54 59 53 55 63 65 66 65 68 73 74 71 75 71 70 66 60 66 59 59 62 61 59 57 56 56 62 67 60 60 61 67 72 72 67 67 66 66 65
57 56 54 54 54 54 55 57 59 63 58 66 65 65 69 73 63 69 74 64 62 59 62 59 55 61 59 59 56 56 54 55 62 62 61 60 60 67 71 63 62 61 60 59 59
56 55 54 53 53 51 54 57 64 65 53 60 65 65 65 68 65 66 69 66 61 58 59 55 60 58 56 57 54 56 54 54 53 59 62 60 57 65 68 62 60 60 59 59 55
55 54 53 53 48 51 47 59 61 62 42 52 56 63 65 68 60 72 71 66 60 56 57 55 59 54 55 54 56 49 59 55 53 51 46 60 43 58 59 55 54 55 53 54 52
55 53 52 53 54 49 55 60 57 56 28 57 59 73 68 61 63 62 71 64 57 57 55 53 52 51 47 52 55 51 57 54 54 51 51 53 48 56 54 48 49 48 45 47 48
54 53 52 49 55 57 58 56 52 33 26 51 57 55 55 60 61 63 62 66 64 56 58 57 62 57 57 57 58 59 54 56 57 52 41 52 50 48 44 44 45 45 43 42 44
53 52 54 57 48 56 55 48 31 28 58 49 50 55 55 53 55 57 55 55 53 46 48 55 54 58 58 53 58 56 52 44 41 40 42 55 50 38 47 50 45 41 41 40 42
52 51 53 60 51 54 48 38 25 42 51 57 55 54 50 54 53 55 53 51 54 53 52 48 41 54 57 51 50 50 50 42 31 37 41 53 43 39 50 52 48 46 44 40 40
51 47 51 50 51 51 41 29 35 45 55 53 53 48 48 52 50 51 50 53 54 54 46 46 45 56 56 57 56 46 44 53 41 46 41 48 48 51 48 47 45 41 41 36 37
44 44 43 50 52 45 35 34 42 53 57 55 47 51 44 48 45 39 46 55 51 53 55 49 42 53 54 57 58 53 57 43 44 30 30 44 36 33 34 37 39 33 34 34 36
44 36 44 50 49 39 33 42 49 57 60 54 52 49 50 47 48 42 46 51 55 52 54 52 46 47 52 49 50 53 46 46 46 43 34 33 29 33 33 35 34 35 33 33 32
41 32 45 48 35 36 40 49 52 57 61 57 56 55 52 50 48 46 45 50 56 54 46 52 48 42 47 55 57 53 46 45 32 37 37 40 27 39 38 37 37 35 33 33 33
35 36 45 46 34 37 46 49 53 54 54 53 52 55 57 50 43 49 49 54 54 51 48 51 45 38 41 48 53 46 46 47 44 40 36 30 28 41 39 37 39 34 34 34 33
38 31 37 40 43 41 41 45 46 54 52 54 53 56 53 49 51 46 47 48 52 51 47 48 47 39 36 35 43 40 44 46 41 32 33 30 30 32 32 32 33 34 34 33 32
42 37 42 32 38 44 44 47 46 44 53 55 50 52 50 44 45 44 46 46 49 48 50 49 42 45 46 48 45 39 41 40 35 35 34 31 31 32 33 33 34 35 34 33 32
37 39 47 44 46 43 44 45 45 47 48 46 46 49 51 45 46 42 46 47 45 49 49 51 42 45 42 47 41 37 41 43 40 38 35 35 33 40 40 43 41 40 35 33 32
51 55 50 42 41 39 43 46 46 48 47 52 51 50 46 49 54 57 57 55 53 48 47 47 44 42 38 46 35 30 33 35 36 38 38 32 34 39 39 40 40 40 39 37 35

GFSSW_sfc_temp_141.txt.gz
Temp
62 61 61 61 60 60 59 59 58 58 59 59 59 59 59 59 58 66 63 62 62 66 66 68 70 70 70 65 64 62 51 46 53 56 61 71 68 72 75 72 73 76 73 75 78
62 62 61 61 60 59 59 59 58 58 58 59 59 59 58 58 58 63 65 67 67 67 68 68 67 69 61 61 63 59 48 53 62 60 64 67 65 66 65 65 68 70 75 77 77
62 62 62 61 60 60 59 58 58 58 58 58 58 59 58 57 57 62 67 67 68 67 67 69 72 67 57 58 59 59 54 63 66 63 63 60 62 64 60 58 66 65 69 72 72
61 61 61 61 61 60 59 58 58 58 58 58 58 59 58 56 53 61 67 68 68 67 68 68 67 59 56 55 62 54 64 66 66 68 63 60 64 64 60 64 70 70 70 71 70
59 60 60 61 60 59 58 57 57 57 57 58 58 59 55 56 61 68 68 69 69 71 69 68 63 60 55 57 60 57 61 66 66 66 64 66 61 63 65 68 72 73 72 68 69
59 59 58 59 59 59 58 57 57 57 57 57 58 58 53 52 71 72 70 71 72 68 69 68 63 65 59 59 56 62 61 61 63 62 64 63 62 60 66 70 72 72 67 67 61
59 58 58 58 57 57 57 57 56 56 57 58 58 58 55 57 71 70 75 69 72 70 67 70 68 61 59 57 64 62 54 57 62 62 60 64 55 55 66 71 67 65 61 62 61
59 58 57 57 56 56 57 57 56 56 57 57 58 53 50 73 66 72 69 71 75 74 71 71 69 61 57 61 59 54 51 45 59 62 63 61 49 63 66 67 58 59 59 59 59
58 58 57 56 55 55 54 54 55 57 57 57 51 50 52 70 66 72 72 70 73 72 70 76 66 58 58 49 45 49 41 47 52 60 59 54 48 62 65 60 56 54 53 54 53
57 58 57 56 55 54 52 52 53 55 60 62 61 50 60 60 68 70 68 71 66 66 63 60 55 49 49 45 37 43 45 43 44 53 54 48 46 56 56 54 50 49 49 48 48
57 57 57 56 54 52 49 48 48 48 52 52 56 58 65 68 71 66 70 66 63 58 50 57 46 43 49 54 55 52 48 45 49 58 53 51 49 48 52 50 46 46 45 45 45
56 56 57 55 53 52 50 47 50 52 41 59 60 61 68 68 60 65 69 57 55 47 53 49 45 55 59 58 54 52 47 46 52 59 53 49 46 48 50 48 46 44 43 43 43
56 56 56 54 52 48 49 51 57 57 43 50 60 61 63 67 59 59 64 59 53 50 51 46 52 61 58 54 52 50 47 47 47 51 50 48 42 47 49 49 48 46 44 43 41
55 55 54 52 47 48 46 53 56 56 35 46 53 60 64 64 55 68 68 60 55 50 53 50 60 58 53 51 53 44 55 53 50 43 34 47 28 43 44 43 44 43 40 39 40
55 55 52 55 47 45 52 57 56 52 26 54 56 70 65 56 59 60 68 60 51 52 51 45 51 50 48 51 56 48 54 50 48 41 37 42 33 36 41 37 38 39 38 38 39
55 55 52 52 51 53 56 56 50 32 27 48 56 54 53 55 57 61 59 61 60 52 53 52 59 55 53 58 56 57 50 48 47 41 25 41 39 29 32 34 36 39 37 38 37
54 54 51 54 47 57 57 48 30 27 51 47 47 52 51 48 51 55 52 48 44 39 39 49 51 55 59 49 54 51 41 27 26 26 28 48 36 30 38 39 37 36 35 36 36
53 53 53 54 57 57 52 36 26 39 42 55 51 50 44 50 49 52 49 44 50 49 45 39 32 50 56 49 46 47 43 29 24 23 27 45 28 31 42 43 40 40 37 38 35
53 49 49 51 57 56 42 29 32 39 48 48 50 43 43 49 45 47 45 45 51 52 41 42 42 54 55 56 53 45 37 47 37 37 25 31 33 39 41 40 40 38 37 35 34
47 46 46 54 56 49 37 34 39 48 52 51 42 46 38 44 43 38 43 51 51 56 53 48 38 52 54 54 53 48 51 35 35 24 22 29 29 28 32 34 37 34 33 34 36
46 41 48 52 50 39 31 35 43 52 53 48 45 43 45 44 46 39 43 51 56 51 53 49 43 43 49 45 44 44 40 41 39 32 22 18 22 34 34 35 34 35 33 34 33
45 35 46 48 34 36 34 41 48 48 53 52 47 46 45 46 44 43 43 48 55 51 45 49 43 35 43 52 55 49 44 42 25 30 30 27 23 39 34 35 36 33 31 30 34
39 38 46 47 32 32 39 42 47 48 49 47 47 50 50 46 39 46 47 54 52 50 45 47 37 28 36 43 49 45 45 45 40 37 29 19 20 36 35 34 35 29 30 32 34
35 30 36 39 39 38 36 38 40 50 49 51 49 50 47 44 47 43 44 50 52 49 49 49 41 34 23 30 38 38 44 45 40 28 24 21 24 25 29 29 31 31 31 30 28
38 33 36 30 31 38 41 40 41 41 48 51 45 45 42 38 41 40 45 45 49 47 47 44 35 41 43 45 42 40 42 39 36 36 29 29 28 30 30 30 28 30 31 32 31
34 34 37 36 37 38 40 39 40 43 45 44 43 47 46 39 42 40 43 42 41 44 43 45 35 40 38 46 39 38 42 41 39 38 35 31 31 36 41 42 37 36 32 31 31
42 45 41 38 36 35 36 41 42 46 47 51 48 45 44 48 50 51 49 49 47 41 39 39 35 34 31 41 35 27 32 35 35 36 34 28 30 35 39 38 34 34 35 33 32

GFSSW_sfc_temp_144.txt.gz
Temp
62 61 61 61 60 60 59 59 58 58 59 59 59 59 59 59 58 63 60 62 62 66 65 67 68 68 63 58 59 58 47 43 46 52 58 66 64 67 69 65 68 71 65 69 73
62 62 62 61 60 59 59 59 58 58 59 59 59 59 59 58 55 58 67 67 67 67 66 64 64 65 58 55 59 53 45 49 58 57 61 63 62 60 61 62 64 67 70 70 70
62 62 62 61 60 60 59 58 58 58 58 58 58 59 58 56 57 61 67 67 67 67 64 64 65 62 55 55 53 50 50 58 59 59 59 57 60 62 58 55 62 63 66 70 60
61 61 61 61 61 60 59 58 58 58 58 58 59 59 58 55 52 61 67 67 68 66 66 64 62 56 52 51 54 50 58 58 61 59 58 57 61 64 60 62 66 65 65 59 57
60 60 60 61 60 59 58 57 57 57 57 58 59 58 54 55 58 67 68 68 67 68 64 64 60 56 51 53 56 53 56 61 62 59 57 63 61 61 62 66 67 60 59 56 55
59 59 59 60 59 58 58 57 57 57 57 58 59 58 53 50 67 69 68 66 66 63 65 64 59 60 56 54 51 57 56 57 59 59 59 57 59 59 64 60 60 59 55 55 54
59 58 59 59 58 58 57 56 57 56 57 58 58 57 51 54 68 65 69 65 66 66 62 65 63 58 56 54 59 59 53 56 58 57 56 59 54 54 58 59 54 54 54 53 52
59 58 58 58 57 57 56 56 56 56 57 57 57 51 49 68 62 66 65 66 70 68 66 66 65 57 54 58 56 50 50 44 55 56 58 59 47 52 55 52 49 49 49 50 50
58 58 57 56 56 56 55 54 54 56 57 57 50 48 49 68 63 68 68 65 67 67 66 73 62 53 53 46 43 45 39 43 50 57 55 52 46 50 52 50 46 46 45 46 46
57 57 57 56 55 54 53 53 54 55 60 61 60 48 56 58 64 67 66 67 62 60 59 56 52 47 44 42 37 42 42 39 42 49 51 50 40 44 47 45 43 43 43 42 43
57 57 57 56 54 52 51 50 50 49 52 51 55 53 61 65 67 62 67 64 60 54 45 51 42 39 45 49 52 49 46 44 47 54 52 47 40 41 43 43 40 40 40 40 41
56 56 56 55 53 53 52 49 51 52 44 56 54 55 61 62 57 61 66 55 53 45 48 44 40 50 53 54 52 50 45 43 50 55 51 44 39 41 43 41 40 39 38 39 39
56 56 56 54 52 50 50 52 57 52 43 50 55 57 59 63 55 57 61 56 51 47 47 41 48 56 53 50 49 46 44 45 46 48 48 46 37 39 43 43 43 40 39 39 37
55 55 53 52 49 49 47 55 55 54 32 44 48 55 61 62 53 66 65 59 52 48 49 45 55 53 50 49 50 40 52 50 48 42 35 45 29 37 39 38 38 37 36 35 36
55 55 52 54 45 46 50 52 53 52 22 50 52 64 61 55 56 58 66 59 49 50 48 44 47 46 45 48 53 45 52 48 46 39 36 40 31 33 39 34 34 35 36 35 35
55 54 52 51 49 51 53 54 51 34 23 45 54 51 50 54 54 56 57 60 58 50 49 47 54 51 51 55 53 53 48 46 44 38 25 39 38 28 29 32 34 35 35 36 35
54 54 52 51 46 55 55 48 30 26 47 43 45 50 48 46 49 51 50 48 42 37 37 45 48 52 56 47 51 48 39 26 25 25 27 40 33 28 34 35 34 34 34 37 37
53 53 52 53 52 56 51 36 22 35 39 50 47 47 42 46 46 48 45 42 46 45 40 37 31 47 53 47 46 44 40 28 25 23 26 39 25 30 38 38 39 40 39 38 37
53 46 45 49 52 54 41 28 27 36 44 44 46 39 40 45 42 44 41 44 48 48 37 37 38 52 54 54 52 44 36 44 34 33 24 28 31 38 39 37 40 38 36 35 36
46 45 45 51 53 46 36 33 35 45 47 46 37 42 34 40 40 34 40 48 48 52 52 45 36 49 51 54 51 48 49 34 32 24 22 26 27 23 30 32 35 29 29 30 35
44 39 45 51 49 39 30 33 40 48 49 43 40 39 42 39 43 35 41 48 52 51 53 50 42 41 48 43 43 42 39 40 37 30 23 17 20 33 30 31 30 30 27 29 33
43 34 48 50 35 36 32 39 45 44 49 47 46 43 43 41 41 41 40 46 53 50 45 49 42 34 41 51 52 47 42 40 27 30 27 22 17 38 33 33 33 31 29 26 30
40 39 48 48 31 32 38 39 43 43 44 44 43 45 44 42 35 43 44 50 50 49 44 46 37 30 35 42 46 42 43 42 37 34 28 17 19 35 34 31 33 28 29 29 28
37 32 37 41 40 37 35 35 35 45 45 47 46 46 41 39 44 39 42 48 48 47 49 49 41 34 30 33 38 36 41 41 37 26 23 22 23 30 31 25 29 28 29 27 26
36 33 37 31 34 39 39 38 36 36 45 47 45 43 41 35 40 38 41 43 46 48 46 44 34 39 42 43 41 40 39 38 34 34 28 26 27 31 29 28 25 25 28 28 27
33 33 36 34 37 36 37 37 36 39 42 40 40 43 42 37 41 35 39 40 39 44 42 44 34 39 37 43 39 37 39 38 37 36 32 30 28 38 38 35 33 33 28 27 27
42 43 39 35 33 33 34 38 39 43 44 48 45 42 39 42 46 49 49 47 45 41 38 38 35 34 32 39 34 26 30 35 34 35 34 28 30 35 36 35 32 31 31 28 28

GFSSW_sfc_temp_147.txt.gz
Temp
62 61 61 61 60 60 59 59 58 58 59 59 59 59 59 58 57 61 58 60 61 66 66 65 66 65 61 57 58 53 46 41 44 50 53 61 60 65 65 64 65 67 65 59 63
62 62 62 61 60 59 59 59 58 58 58 59 59 59 58 58 54 57 65 67 67 67 64 61 61 61 56 54 55 51 44 48 54 55 57 60 58 60 59 58 60 61 59 60 59
62 62 62 61 60 60 59 58 58 58 58 58 58 59 58 56 56 60 67 67 67 66 61 61 61 58 53 54 51 47 48 53 56 57 57 55 56 62 54 53 56 52 52 55 54
61 61 61 61 60 60 59 58 58 58 58 58 59 59 58 56 51 59 68 67 67 63 64 62 60 55 51 49 53 48 55 55 55 56 55 55 58 58 53 48 55 54 54 53 51
60 60 60 61 60 60 58 58 58 58 58 58 59 59 56 55 58 65 68 67 65 65 62 60 57 53 49 51 54 49 53 56 57 57 54 60 57 56 50 55 56 54 52 50 50
59 59 59 60 60 59 58 57 57 57 57 58 58 58 53 50 65 65 65 64 64 62 61 61 57 57 52 51 49 54 54 54 56 56 56 55 57 53 52 56 53 51 48 48 48
58 58 59 59 59 58 58 57 56 56 57 58 58 56 51 55 63 62 65 62 63 64 59 62 60 56 52 50 56 56 51 53 53 54 55 59 44 43 52 52 47 46 47 47 46
58 58 58 58 58 57 57 56 56 56 57 58 58 52 51 66 61 64 63 65 67 65 64 63 62 56 52 53 53 48 47 42 52 51 54 53 37 46 50 47 43 44 44 45 45
57 57 57 57 57 56 55 54 55 56 57 57 51 50 50 66 61 65 65 63 64 64 62 71 60 51 51 44 41 42 37 41 48 54 50 49 36 45 46 46 42 42 41 42 42
57 57 56 57 56 55 53 53 54 54 59 60 59 48 56 57 62 64 62 64 60 58 57 54 48 43 41 40 36 38 40 38 42 49 50 38 35 39 42 42 40 40 40 40 40
56 56 56 56 55 53 52 51 50 49 51 50 51 52 57 62 64 60 65 61 57 53 45 48 41 37 42 45 47 45 42 40 42 51 46 39 34 36 40 40 37 38 38 38 38
56 56 56 56 54 54 53 49 49 51 42 54 53 54 59 60 53 58 64 55 50 44 46 42 38 48 49 49 47 45 42 41 46 52 46 36 33 37 39 38 37 37 36 36 37
56 55 56 53 53 51 50 51 56 50 40 47 53 52 56 58 53 53 60 55 49 44 44 39 46 52 49 46 45 44 41 42 43 44 44 37 30 35 40 41 41 39 38 37 35
55 55 53 52 49 49 48 53 53 49 29 41 46 52 57 59 51 63 63 57 50 45 46 42 51 50 46 46 47 39 49 48 45 39 32 41 26 33 37 36 37 36 34 34 35
55 53 52 54 44 45 49 51 54 47 18 47 48 61 58 53 54 55 63 55 50 49 48 43 46 45 44 47 50 44 50 46 44 37 33 35 30 29 36 34 33 33 34 33 33
54 53 53 50 49 50 50 54 47 29 20 42 51 48 47 51 52 54 55 57 56 48 48 46 52 49 49 52 51 51 46 42 40 36 22 36 34 26 28 31 33 34 33 38 38
54 54 52 53 46 52 53 45 29 19 43 40 43 47 45 44 47 49 47 45 42 35 37 44 47 49 52 45 48 46 39 26 25 23 26 38 34 28 31 34 33 33 34 35 38
53 53 53 52 53 53 49 34 17 33 35 46 45 45 39 44 43 45 43 40 45 42 36 34 30 45 50 46 43 41 39 29 25 23 26 38 28 27 36 37 37 37 35 34 33
53 47 47 49 52 51 41 25 25 32 40 39 42 37 37 43 40 41 38 40 45 46 36 34 35 48 50 51 51 41 35 44 34 32 26 28 30 36 36 35 37 34 32 29 32
43 44 45 51 51 46 36 31 33 42 44 43 35 38 32 37 37 33 37 44 45 50 48 44 34 47 49 52 48 46 48 35 33 26 23 25 25 24 31 31 33 26 27 28 30
44 38 45 50 48 39 30 31 38 45 46 40 37 37 38 36 38 33 38 44 48 47 50 49 41 40 46 42 41 42 39 38 38 31 25 21 21 28 31 31 30 28 25 26 26
41 32 45 48 35 36 31 37 44 41 46 43 42 40 38 38 37 38 37 44 50 48 44 45 40 35 41 49 51 49 42 40 30 30 29 23 19 35 32 32 31 30 27 24 26
38 38 47 47 28 31 37 38 40 40 42 41 40 42 43 38 32 39 42 48 48 47 43 44 35 27 34 42 46 42 43 42 37 34 29 21 20 33 33 31 32 26 27 27 26
39 32 38 40 38 35 34 35 35 42 41 44 41 43 38 37 41 36 40 47 48 46 49 47 38 35 29 33 39 36 40 41 38 29 26 23 19 29 30 26 28 29 28 24 22
37 34 38 32 33 35 38 37 35 34 42 43 40 41 38 34 35 34 40 41 45 48 46 43 33 37 41 43 41 39 41 38 36 35 31 27 26 29 31 27 25 24 27 26 26
33 33 36 35 37 35 36 35 35 37 39 36 36 40 40 36 38 33 38 37 38 43 41 44 32 36 35 43 41 37 40 39 37 35 31 28 29 34 34 32 30 30 27 25 26
41 42 38 35 34 32 34 34 36 41 41 43 40 39 38 42 45 47 45 43 44 39 36 37 33 31 28 39 35 29 32 36 34 34 33 28 31 31 31 32 29 28 29 28 27

GFSSW_sfc_temp_150.txt.gz
Temp
62 61 61 61 60 60 59 59 58 59 59 59 59 59 60 59 57 59 56 59 60 66 66 63 64 62 60 57 56 52 45 40 46 48 51 59 57 62 62 60 55 55 51 54 57
62 62 62 61 60 60 59 59 58 58 59 59 59 59 59 58 54 58 64 67 67 67 62 61 59 60 55 53 54 50 43 46 52 53 55 57 55 57 58 55 53 52 54 55 54
62 62 62 61 61 60 59 58 58 59 59 59 59 59 59 56 56 60 67 67 67 65 59 59 59 57 52 50 48 45 47 50 52 53 53 51 53 54 51 46 47 47 48 50 50
61 61 61 61 61 60 59 58 58 58 59 59 59 59 58 55 50 59 68 68 68 63 62 60 59 52 48 46 50 45 52 52 52 53 52 51 54 47 44 45 51 49 50 48 46
60 60 60 61 61 60 58 58 58 58 58 59 59 59 57 55 58 65 68 67 64 64 60 58 55 51 48 48 51 47 49 53 54 53 53 54 48 46 45 50 52 50 48 46 45
59 59 59 60 60 59 58 57 57 57 57 58 59 59 54 51 63 64 64 65 63 61 60 59 55 55 51 49 47 50 50 52 53 52 53 48 47 47 46 51 49 47 44 44 44
59 59 59 59 59 59 58 57 56 57 57 58 59 56 51 56 61 62 64 61 63 62 58 60 59 55 51 48 53 51 48 51 50 51 50 50 41 39 47 48 43 43 43 43 43
58 58 57 58 58 58 57 56 56 56 57 58 58 52 49 64 61 64 60 62 65 64 62 61 61 55 50 51 51 45 45 41 48 52 50 50 37 42 46 44 40 41 42 42 42
57 57 57 56 57 57 56 55 55 56 57 57 52 50 50 66 60 64 63 62 62 62 62 69 58 49 49 42 40 41 36 38 45 50 48 45 34 41 43 43 39 39 38 40 40
57 56 56 56 56 55 54 54 55 54 57 59 57 48 57 57 62 64 60 62 59 57 56 54 47 42 40 39 34 36 36 34 37 42 41 35 32 37 39 39 37 37 37 37 38
56 56 56 56 55 53 53 49 47 45 46 50 50 51 54 59 61 59 62 60 57 53 44 47 41 38 42 43 44 43 39 37 39 46 40 35 32 34 36 38 35 37 37 37 36
56 55 55 56 54 54 53 45 45 47 41 51 52 52 57 58 51 56 61 53 49 44 45 42 37 46 47 46 44 42 39 38 43 48 41 32 29 33 36 35 34 34 34 34 35
55 55 55 54 53 50 51 47 54 53 39 45 51 51 53 56 51 52 59 53 48 43 43 39 44 50 47 42 42 40 39 38 41 42 37 35 29 32 37 37 38 36 34 35 34
55 55 53 53 48 43 43 49 49 48 28 39 44 50 54 55 49 60 60 56 48 44 44 40 48 47 43 42 44 36 46 46 42 38 31 37 26 30 33 34 34 33 31 32 32
55 54 53 54 44 43 48 49 48 45 17 44 46 59 56 51 51 52 58 53 47 46 46 41 44 42 41 43 47 41 47 45 42 35 32 33 29 27 33 30 31 31 32 32 33
55 53 53 49 45 46 47 49 46 26 19 40 48 46 46 49 50 52 52 55 53 46 45 43 49 47 48 51 51 51 45 42 39 35 23 35 35 26 27 31 31 33 33 34 33
54 53 51 51 43 47 48 43 27 17 42 38 41 44 43 42 45 46 45 43 39 34 34 41 44 47 51 43 47 45 39 28 27 25 25 35 34 29 31 34 34 32 32 32 33
53 52 52 52 48 48 44 32 17 32 34 44 43 43 38 43 43 44 41 37 43 40 34 32 30 44 49 46 42 41 41 31 24 23 25 36 27 29 36 37 36 35 32 31 31
52 47 47 49 48 47 37 17 25 31 39 38 40 35 35 41 40 39 37 37 42 44 34 32 33 45 47 48 50 39 35 44 34 31 24 28 28 33 34 34 35 32 31 28 28
44 44 44 51 47 42 33 31 31 39 42 40 34 37 32 35 36 31 36 41 42 46 47 41 31 43 47 49 47 45 46 35 32 25 23 23 24 26 29 30 32 26 26 26 28
43 37 43 50 49 39 29 30 36 43 43 39 35 35 36 34 36 31 36 42 45 44 47 46 37 37 44 39 38 41 38 37 38 33 26 21 22 29 32 33 31 29 26 26 23
41 31 41 49 35 36 32 35 42 39 43 41 39 39 36 36 33 35 34 41 46 45 40 44 39 31 38 50 49 47 41 40 32 29 29 28 22 34 33 33 32 30 28 24 25
37 38 44 47 29 31 37 37 39 37 38 37 37 39 39 36 31 35 39 46 47 44 41 43 34 28 31 38 46 42 42 41 37 35 28 23 25 34 33 31 32 28 27 27 25
38 31 37 39 39 33 33 33 33 40 38 40 38 40 36 34 38 33 36 44 45 45 46 47 35 30 26 30 35 36 39 41 38 31 30 26 24 29 30 29 30 29 28 23 21
39 34 35 29 33 34 34 32 31 32 39 39 35 36 34 30 33 32 37 40 42 46 44 43 33 35 38 41 40 36 38 39 35 37 33 34 29 30 31 30 26 25 26 26 26
33 34 37 35 37 34 35 32 31 35 36 36 35 37 37 33 35 32 37 35 37 41 39 41 31 34 32 40 40 35 38 40 40 37 32 30 31 34 34 31 28 29 27 26 25
41 42 37 35 34 32 33 35 35 38 40 42 40 37 34 38 43 43 42 41 41 38 36 37 33 30 28 37 32 28 32 35 37 37 35 30 34 32 30 31 30 27 29 28 27